FWI46E LFPO-TFFF

Flight info

Callsign FWI46E
Flight time 8h 40m
Altitude 36000
Route LGL2F LGL UN491 OTOFE DCT ALUTA DCT TAKAS/M085F340 DCT TAMEL DCT 47N020W 4430N03000W/M085F360 4030N04000W 3630N04500W 3130N05000W/M085F380 25N055W DCT CITRS/N0490F380 DCT UMAMU UMAMU2D
Aircraft A35K/H-V/N

Departure

Time 2026-05-06 06:01
Airport Paris-Orly Airport (LFPO)

Arrival

Time 2026-05-06 14:42
Airport Martinique Aimé Césaire International Airport (TFFF)
Time Latitude Longitude Altitude Speed Heading
2026-05-06 05:50 48.72742 2.37384 300 ft 2 kts 287°
2026-05-06 05:50 48.72742 2.37408 302 ft 2 kts 253°
2026-05-06 05:51 48.72747 2.37432 299 ft 2 kts 255°
2026-05-06 05:51 48.72751 2.37456 302 ft 2 kts 255°
2026-05-06 05:51 48.72754 2.37474 299 ft 1 kts 254°
2026-05-06 05:51 48.72755 2.37476 299 ft 0 kts 254°
2026-05-06 05:53 48.72754 2.37474 298 ft 1 kts 254°
2026-05-06 05:53 48.72754 2.37471 298 ft 1 kts 254°
2026-05-06 05:54 48.72749 2.37446 299 ft 4 kts 254°
2026-05-06 05:54 48.72740 2.37397 301 ft 6 kts 254°
2026-05-06 05:54 48.72726 2.37327 301 ft 8 kts 254°
2026-05-06 05:54 48.72710 2.37241 301 ft 9 kts 254°
2026-05-06 05:55 48.72673 2.37176 300 ft 9 kts 193°
2026-05-06 05:55 48.72612 2.37165 300 ft 9 kts 210°
2026-05-06 05:55 48.72580 2.37079 301 ft 10 kts 251°
2026-05-06 05:55 48.72558 2.36974 302 ft 11 kts 253°
2026-05-06 05:56 48.72537 2.36854 298 ft 12 kts 255°
2026-05-06 05:56 48.72514 2.36724 302 ft 11 kts 255°
2026-05-06 05:56 48.72491 2.36603 302 ft 12 kts 253°
2026-05-06 05:56 48.72467 2.36474 299 ft 13 kts 254°
2026-05-06 05:57 48.72441 2.36340 303 ft 12 kts 254°
2026-05-06 05:57 48.72421 2.36229 301 ft 6 kts 254°
2026-05-06 05:57 48.72417 2.36207 303 ft 0 kts 254°
2026-05-06 05:57 48.72412 2.36184 301 ft 5 kts 254°
2026-05-06 05:58 48.72403 2.36130 301 ft 7 kts 255°
2026-05-06 05:58 48.72387 2.36042 302 ft 11 kts 255°
2026-05-06 05:58 48.72365 2.35918 301 ft 14 kts 255°
2026-05-06 05:58 48.72337 2.35763 299 ft 17 kts 255°
2026-05-06 05:59 48.72291 2.35617 303 ft 13 kts 217°
2026-05-06 05:59 48.72223 2.35606 301 ft 9 kts 171°
2026-05-06 05:59 48.72145 2.35629 298 ft 14 kts 169°
2026-05-06 05:59 48.72061 2.35697 301 ft 10 kts 136°
2026-05-06 06:00 48.72017 2.35788 302 ft 13 kts 122°
2026-05-06 06:00 48.71978 2.35919 301 ft 15 kts 112°
2026-05-06 06:00 48.71985 2.36095 301 ft 21 kts 74°
2026-05-06 06:00 48.72076 2.36579 303 ft 82 kts 75°
2026-05-06 06:01 48.72289 2.37752 301 ft 146 kts 74°
2026-05-06 06:01 48.72607 2.39447 639 ft 175 kts 71°
2026-05-06 06:01 48.72944 2.41217 1533 ft 175 kts 70°
2026-05-06 06:01 48.73280 2.42993 2506 ft 174 kts 70°
2026-05-06 06:02 48.73597 2.44695 3256 ft 167 kts 70°
2026-05-06 06:02 48.73908 2.46444 3594 ft 179 kts 73°
2026-05-06 06:02 48.74073 2.48412 3850 ft 198 kts 82°
2026-05-06 06:02 48.74158 2.50597 4123 ft 216 kts 84°
2026-05-06 06:03 48.74243 2.52950 4321 ft 237 kts 83°
2026-05-06 06:03 48.74271 2.55543 4626 ft 255 kts 92°
2026-05-06 06:03 48.73705 2.58132 5129 ft 268 kts 121°
2026-05-06 06:03 48.72284 2.59987 5685 ft 278 kts 155°
2026-05-06 06:04 48.70371 2.60427 6256 ft 285 kts 188°
2026-05-06 06:04 48.68571 2.59256 6904 ft 284 kts 221°
2026-05-06 06:04 48.67451 2.56859 7526 ft 281 kts 253°
2026-05-06 06:04 48.67153 2.53958 8218 ft 279 kts 269°
2026-05-06 06:05 48.67056 2.51014 8910 ft 281 kts 268°
2026-05-06 06:05 48.66937 2.48053 9596 ft 283 kts 266°
2026-05-06 06:05 48.66787 2.45060 10160 ft 289 kts 265°
2026-05-06 06:05 48.66605 2.41963 10445 ft 303 kts 264°
2026-05-06 06:06 48.66130 2.38826 10704 ft 318 kts 251°
2026-05-06 06:06 48.65298 2.35604 10976 ft 331 kts 248°
2026-05-06 06:06 48.64395 2.32326 11247 ft 344 kts 248°
2026-05-06 06:06 48.63479 2.28912 11514 ft 356 kts 251°
2026-05-06 06:07 48.62959 2.25278 11855 ft 362 kts 268°
2026-05-06 06:07 48.63146 2.21426 12386 ft 365 kts 278°
2026-05-06 06:07 48.63532 2.17669 12911 ft 368 kts 279°
2026-05-06 06:07 48.63938 2.13840 13431 ft 370 kts 279°
2026-05-06 06:08 48.64340 2.09968 13921 ft 373 kts 279°
2026-05-06 06:08 48.64739 2.06070 14351 ft 377 kts 279°
2026-05-06 06:08 48.65137 2.02143 14791 ft 380 kts 279°
2026-05-06 06:08 48.65536 1.98174 15253 ft 383 kts 279°
2026-05-06 06:09 48.65934 1.94184 15699 ft 385 kts 279°
2026-05-06 06:09 48.66363 1.90166 16152 ft 389 kts 282°
2026-05-06 06:09 48.67062 1.86193 16559 ft 392 kts 287°
2026-05-06 06:09 48.67884 1.82235 16983 ft 396 kts 288°
2026-05-06 06:10 48.68722 1.78249 17405 ft 400 kts 288°
2026-05-06 06:10 48.69280 1.75578 17699 ft 402 kts 288°
2026-05-06 06:10 48.70122 1.71532 18138 ft 405 kts 288°
2026-05-06 06:10 48.70968 1.67446 18533 ft 408 kts 288°
2026-05-06 06:11 48.71816 1.63335 18957 ft 410 kts 288°
2026-05-06 06:11 48.72670 1.59186 19376 ft 412 kts 288°
2026-05-06 06:11 48.73525 1.55022 19776 ft 415 kts 288°
2026-05-06 06:11 48.74366 1.50823 20173 ft 418 kts 286°
2026-05-06 06:12 48.74920 1.46490 20562 ft 422 kts 278°
2026-05-06 06:12 48.75179 1.42086 20945 ft 425 kts 275°
2026-05-06 06:12 48.75385 1.37598 21320 ft 429 kts 275°
2026-05-06 06:12 48.75590 1.33069 21696 ft 432 kts 275°
2026-05-06 06:13 48.75798 1.28509 22085 ft 436 kts 275°
2026-05-06 06:13 48.76008 1.23913 22486 ft 438 kts 275°
2026-05-06 06:13 48.76219 1.19284 22875 ft 442 kts 275°
2026-05-06 06:13 48.76431 1.14622 23226 ft 445 kts 275°
2026-05-06 06:14 48.76644 1.09918 23605 ft 448 kts 275°
2026-05-06 06:14 48.76856 1.05187 23929 ft 451 kts 275°
2026-05-06 06:14 48.77068 1.00421 24281 ft 453 kts 275°
2026-05-06 06:14 48.77278 0.95644 24622 ft 456 kts 275°
2026-05-06 06:15 48.77485 0.90890 24982 ft 458 kts 275°
2026-05-06 06:15 48.77693 0.86067 25353 ft 459 kts 275°
2026-05-06 06:15 48.77900 0.81232 25723 ft 461 kts 275°
2026-05-06 06:15 48.78106 0.76360 26092 ft 464 kts 275°
2026-05-06 06:16 48.78311 0.71467 26450 ft 466 kts 275°
2026-05-06 06:16 48.78515 0.66549 26813 ft 468 kts 275°
2026-05-06 06:16 48.78718 0.61613 27170 ft 470 kts 275°
2026-05-06 06:16 48.78920 0.56653 27517 ft 473 kts 275°
2026-05-06 06:17 48.79122 0.51664 27872 ft 475 kts 275°
2026-05-06 06:17 48.79379 0.46660 28204 ft 477 kts 276°
2026-05-06 06:17 48.79699 0.41633 28554 ft 479 kts 277°
2026-05-06 06:17 48.80043 0.36592 28897 ft 481 kts 277°
2026-05-06 06:18 48.80390 0.31531 29217 ft 483 kts 277°
2026-05-06 06:18 48.80728 0.26453 29529 ft 485 kts 277°
2026-05-06 06:18 48.81057 0.21344 29840 ft 487 kts 277°
2026-05-06 06:18 48.81378 0.16214 30112 ft 489 kts 276°
2026-05-06 06:19 48.81692 0.11076 30371 ft 491 kts 276°
2026-05-06 06:19 48.82003 0.05905 30660 ft 491 kts 276°
2026-05-06 06:19 48.82305 0.00833 31062 ft 489 kts 276°
2026-05-06 06:19 48.82608 -0.04297 31456 ft 487 kts 276°
2026-05-06 06:20 48.82908 -0.09411 31845 ft 486 kts 276°
2026-05-06 06:20 48.83206 -0.14505 32205 ft 485 kts 276°
2026-05-06 06:20 48.83502 -0.19603 32565 ft 483 kts 276°
2026-05-06 06:20 48.83794 -0.24681 32905 ft 482 kts 276°
2026-05-06 06:21 48.84085 -0.29747 33246 ft 481 kts 276°
2026-05-06 06:21 48.84361 -0.34803 33593 ft 480 kts 276°
2026-05-06 06:21 48.84628 -0.39861 33928 ft 479 kts 276°
2026-05-06 06:21 48.84891 -0.44899 34191 ft 478 kts 276°
2026-05-06 06:22 48.85152 -0.49935 34420 ft 478 kts 276°
2026-05-06 06:22 48.85412 -0.54970 34627 ft 479 kts 276°
2026-05-06 06:22 48.85672 -0.60022 34826 ft 479 kts 275°
2026-05-06 06:22 48.85927 -0.65006 35032 ft 479 kts 275°
2026-05-06 06:23 48.86184 -0.70050 35235 ft 479 kts 275°
2026-05-06 06:23 48.86437 -0.75089 35419 ft 479 kts 275°
2026-05-06 06:23 48.86690 -0.80143 35612 ft 479 kts 275°
2026-05-06 06:23 48.86941 -0.85199 35797 ft 479 kts 275°
2026-05-06 06:24 48.87190 -0.90248 35912 ft 481 kts 275°
2026-05-06 06:24 48.87437 -0.95332 35930 ft 485 kts 275°
2026-05-06 06:24 48.87929 -1.05580 35929 ft 486 kts 275°
2026-05-06 06:25 48.88412 -1.15827 35926 ft 486 kts 275°
2026-05-06 06:26 48.89114 -1.31108 35931 ft 485 kts 275°
2026-05-06 06:26 48.89575 -1.41395 35927 ft 485 kts 275°
2026-05-06 06:27 48.90023 -1.51543 35929 ft 485 kts 275°
2026-05-06 06:27 48.90470 -1.61785 35933 ft 485 kts 274°
2026-05-06 06:28 48.90902 -1.71999 35936 ft 484 kts 274°
2026-05-06 06:28 48.91331 -1.82228 35936 ft 484 kts 274°
2026-05-06 06:29 48.91746 -1.92442 35939 ft 484 kts 274°
2026-05-06 06:29 48.92152 -2.02659 35938 ft 483 kts 274°
2026-05-06 06:30 48.92547 -2.12804 35937 ft 484 kts 274°
2026-05-06 06:30 48.92937 -2.23010 35939 ft 484 kts 274°
2026-05-06 06:31 48.93317 -2.33227 35943 ft 484 kts 274°
2026-05-06 06:31 48.93690 -2.43456 35938 ft 484 kts 274°
2026-05-06 06:32 48.94056 -2.53683 35943 ft 484 kts 274°
2026-05-06 06:32 48.94405 -2.63928 35942 ft 484 kts 274°
2026-05-06 06:33 48.94738 -2.74103 35938 ft 484 kts 274°
2026-05-06 06:33 48.95067 -2.84349 35937 ft 485 kts 274°
2026-05-06 06:34 48.95389 -2.94609 35942 ft 485 kts 274°
2026-05-06 06:34 48.95703 -3.04858 35940 ft 485 kts 274°
2026-05-06 06:35 48.96005 -3.15048 35940 ft 485 kts 274°
2026-05-06 06:35 48.96300 -3.25296 35939 ft 485 kts 274°
2026-05-06 06:36 48.96586 -3.35571 35941 ft 485 kts 274°
2026-05-06 06:36 48.96863 -3.45834 35937 ft 485 kts 274°
2026-05-06 06:37 48.97131 -3.56094 35945 ft 485 kts 273°
2026-05-06 06:37 48.97389 -3.66349 35946 ft 485 kts 273°
2026-05-06 06:38 48.97639 -3.76613 35953 ft 485 kts 273°
2026-05-06 06:38 48.97879 -3.86884 35952 ft 485 kts 273°
2026-05-06 06:39 48.98111 -3.97133 35958 ft 484 kts 273°
2026-05-06 06:39 48.98331 -4.07318 35962 ft 484 kts 273°
2026-05-06 06:40 48.98544 -4.17551 35966 ft 483 kts 273°
2026-05-06 06:40 48.98747 -4.27760 35960 ft 482 kts 273°
2026-05-06 06:41 48.98940 -4.37952 35965 ft 481 kts 273°
2026-05-06 06:41 48.99125 -4.48128 35971 ft 480 kts 273°
2026-05-06 06:42 48.99300 -4.58279 35971 ft 479 kts 273°
2026-05-06 06:42 48.99466 -4.68417 35973 ft 479 kts 272°
2026-05-06 06:43 48.99623 -4.78552 35975 ft 478 kts 272°
2026-05-06 06:43 48.99771 -4.88671 35980 ft 478 kts 272°
2026-05-06 06:44 48.99908 -4.98781 35980 ft 477 kts 272°
2026-05-06 06:44 49.00037 -5.08833 35983 ft 477 kts 272°
2026-05-06 06:45 49.00158 -5.18957 35988 ft 477 kts 272°
2026-05-06 06:45 49.00272 -5.29071 35989 ft 477 kts 272°
2026-05-06 06:46 49.00377 -5.39180 35991 ft 477 kts 272°
2026-05-06 06:46 49.00471 -5.49275 35993 ft 477 kts 272°
2026-05-06 06:47 49.00557 -5.59364 35998 ft 477 kts 272°
2026-05-06 06:47 49.00634 -5.69472 35998 ft 477 kts 271°
2026-05-06 06:48 49.00702 -5.79574 35998 ft 476 kts 271°
2026-05-06 06:48 49.00761 -5.89667 36005 ft 476 kts 271°
2026-05-06 06:49 49.00811 -5.99691 36002 ft 476 kts 271°
2026-05-06 06:49 49.00853 -6.09788 36005 ft 476 kts 271°
2026-05-06 06:50 49.00886 -6.19881 36006 ft 476 kts 271°
2026-05-06 06:50 49.00910 -6.29980 36006 ft 476 kts 271°
2026-05-06 06:51 49.00926 -6.40066 36012 ft 476 kts 271°
2026-05-06 06:51 49.00932 -6.50144 36010 ft 476 kts 271°
2026-05-06 06:52 49.00930 -6.60171 36012 ft 476 kts 271°
2026-05-06 06:52 49.00919 -6.70283 36020 ft 476 kts 271°
2026-05-06 06:53 49.00899 -6.80393 36022 ft 477 kts 270°
2026-05-06 06:53 49.00870 -6.90497 36021 ft 477 kts 270°
2026-05-06 06:54 49.00833 -7.00526 36023 ft 477 kts 270°
2026-05-06 06:54 49.00787 -7.10641 36020 ft 477 kts 270°
2026-05-06 06:55 49.00731 -7.20757 36022 ft 477 kts 270°
2026-05-06 06:55 49.00667 -7.30857 36022 ft 477 kts 270°
2026-05-06 06:56 49.00608 -7.39248 36027 ft 476 kts 270°
2026-05-06 06:56 49.00528 -7.49351 36025 ft 476 kts 270°
2026-05-06 06:57 49.00427 -7.61076 36030 ft 476 kts 270°
2026-05-06 06:57 49.00330 -7.71171 36029 ft 476 kts 270°
2026-05-06 06:58 49.00243 -7.79555 36033 ft 476 kts 270°
2026-05-06 06:58 49.00131 -7.89637 36028 ft 476 kts 270°
2026-05-06 06:59 48.99925 -7.99696 36040 ft 476 kts 265°
2026-05-06 06:59 48.99081 -8.09700 36047 ft 476 kts 263°
2026-05-06 07:00 48.98098 -8.19678 36027 ft 476 kts 262°
2026-05-06 07:00 48.97088 -8.29630 36031 ft 476 kts 262°
2026-05-06 07:01 48.96079 -8.39581 36029 ft 475 kts 262°
2026-05-06 07:01 48.95076 -8.49459 36037 ft 475 kts 262°
2026-05-06 07:02 48.94058 -8.59415 36030 ft 475 kts 262°
2026-05-06 07:02 48.93033 -8.69351 36042 ft 475 kts 262°
2026-05-06 07:03 48.92000 -8.79276 36038 ft 475 kts 262°
2026-05-06 07:03 48.90958 -8.89197 36046 ft 475 kts 262°
2026-05-06 07:04 48.89906 -8.99129 36041 ft 475 kts 262°
2026-05-06 07:04 48.88847 -9.09041 36044 ft 475 kts 261°
2026-05-06 07:05 48.87785 -9.18901 36045 ft 475 kts 261°
2026-05-06 07:05 48.86708 -9.28814 36046 ft 475 kts 261°
2026-05-06 07:06 48.85624 -9.38710 36050 ft 475 kts 261°
2026-05-06 07:06 48.84533 -9.48598 36048 ft 475 kts 261°
2026-05-06 07:07 48.83431 -9.58496 36055 ft 475 kts 261°
2026-05-06 07:07 48.82320 -9.68391 36059 ft 475 kts 261°
2026-05-06 07:08 48.81202 -9.78272 36058 ft 475 kts 261°
2026-05-06 07:08 48.80076 -9.88147 36060 ft 475 kts 261°
2026-05-06 07:09 48.78948 -9.97957 36057 ft 475 kts 261°
2026-05-06 07:09 48.77806 -10.07822 36061 ft 475 kts 261°
2026-05-06 07:10 48.76656 -10.17672 36060 ft 475 kts 261°
2026-05-06 07:10 48.75497 -10.27519 36066 ft 474 kts 261°
2026-05-06 07:11 48.74330 -10.37357 36068 ft 474 kts 260°
2026-05-06 07:11 48.73154 -10.47205 36064 ft 474 kts 260°
2026-05-06 07:12 48.71934 -10.56961 36069 ft 475 kts 259°
2026-05-06 07:12 48.70571 -10.66760 36072 ft 475 kts 258°
2026-05-06 07:13 48.69195 -10.76533 36073 ft 475 kts 258°
2026-05-06 07:13 48.67829 -10.86313 36068 ft 475 kts 258°
2026-05-06 07:14 48.66466 -10.96082 36077 ft 475 kts 258°
2026-05-06 07:14 48.65106 -11.05790 36075 ft 474 kts 258°
2026-05-06 07:15 48.63728 -11.15552 36079 ft 474 kts 258°
2026-05-06 07:15 48.62342 -11.25303 36082 ft 474 kts 258°
2026-05-06 07:16 48.60948 -11.35046 36081 ft 474 kts 258°
2026-05-06 07:16 48.59546 -11.44779 36085 ft 474 kts 258°
2026-05-06 07:17 48.58136 -11.54509 36086 ft 474 kts 258°
2026-05-06 07:17 48.56716 -11.64243 36084 ft 474 kts 258°
2026-05-06 07:18 48.55297 -11.73913 36093 ft 474 kts 258°
2026-05-06 07:18 48.53852 -11.83693 36092 ft 474 kts 258°
2026-05-06 07:19 48.52418 -11.93343 36098 ft 474 kts 257°
2026-05-06 07:19 48.50966 -12.03056 36093 ft 475 kts 257°
2026-05-06 07:20 48.49504 -12.12772 36098 ft 475 kts 257°
2026-05-06 07:20 48.48032 -12.22490 36095 ft 475 kts 257°
2026-05-06 07:21 48.46552 -12.32206 36101 ft 475 kts 257°
2026-05-06 07:21 48.45074 -12.41849 36104 ft 475 kts 257°
2026-05-06 07:22 48.43580 -12.51542 36102 ft 475 kts 257°
2026-05-06 07:22 48.42074 -12.61248 36104 ft 475 kts 257°
2026-05-06 07:23 48.40563 -12.70933 36105 ft 475 kts 257°
2026-05-06 07:23 48.39042 -12.80619 36108 ft 475 kts 257°
2026-05-06 07:24 48.37511 -12.90311 36109 ft 476 kts 257°
2026-05-06 07:24 48.35975 -12.99980 36109 ft 476 kts 257°
2026-05-06 07:25 48.34439 -13.09596 36116 ft 476 kts 257°
2026-05-06 07:25 48.32886 -13.19256 36115 ft 476 kts 257°
2026-05-06 07:26 48.31324 -13.28919 36116 ft 476 kts 257°
2026-05-06 07:26 48.29753 -13.38579 36122 ft 476 kts 257°
2026-05-06 07:27 48.28174 -13.48232 36121 ft 476 kts 257°
2026-05-06 07:27 48.26587 -13.57881 36122 ft 476 kts 257°
2026-05-06 07:28 48.24990 -13.67534 36128 ft 477 kts 257°
2026-05-06 07:28 48.22576 -13.82029 36129 ft 477 kts 257°
2026-05-06 07:29 48.20954 -13.91694 36130 ft 478 kts 257°
2026-05-06 07:29 48.19326 -14.01345 36133 ft 478 kts 257°
2026-05-06 07:30 48.17701 -14.10930 36136 ft 478 kts 257°
2026-05-06 07:30 48.16054 -14.20588 36139 ft 478 kts 257°
2026-05-06 07:31 48.14396 -14.30244 36139 ft 479 kts 257°
2026-05-06 07:31 48.12729 -14.39903 36142 ft 479 kts 257°
2026-05-06 07:32 48.11054 -14.49558 36143 ft 479 kts 257°
2026-05-06 07:32 48.09371 -14.59211 36145 ft 479 kts 257°
2026-05-06 07:33 48.07679 -14.68856 36144 ft 480 kts 257°
2026-05-06 07:33 48.05977 -14.78509 36153 ft 480 kts 257°
2026-05-06 07:34 48.04269 -14.88149 36149 ft 480 kts 257°
2026-05-06 07:34 48.02551 -14.97797 36152 ft 481 kts 257°
2026-05-06 07:35 48.00821 -15.07456 36153 ft 481 kts 257°
2026-05-06 07:35 47.99081 -15.17111 36156 ft 482 kts 257°
2026-05-06 07:36 47.97342 -15.26710 36159 ft 482 kts 257°
2026-05-06 07:36 47.95583 -15.36378 36161 ft 483 kts 257°
2026-05-06 07:37 47.93813 -15.46048 36166 ft 484 kts 257°
2026-05-06 07:37 47.92030 -15.55738 36164 ft 484 kts 257°
2026-05-06 07:38 47.90240 -15.65418 36165 ft 485 kts 257°
2026-05-06 07:38 47.88437 -15.75113 36164 ft 485 kts 257°
2026-05-06 07:39 47.86641 -15.84724 36171 ft 485 kts 257°
2026-05-06 07:39 47.84822 -15.94404 36168 ft 485 kts 257°
2026-05-06 07:40 47.82992 -16.04095 36168 ft 486 kts 257°
2026-05-06 07:40 47.81157 -16.13765 36172 ft 486 kts 257°
2026-05-06 07:41 47.79314 -16.23426 36183 ft 486 kts 257°
2026-05-06 07:41 47.77459 -16.33097 36180 ft 486 kts 257°
2026-05-06 07:42 47.75598 -16.42754 36179 ft 486 kts 257°
2026-05-06 07:42 47.73730 -16.52397 36179 ft 486 kts 257°
2026-05-06 07:43 47.71852 -16.62044 36181 ft 486 kts 257°
2026-05-06 07:43 47.69966 -16.71683 36184 ft 486 kts 257°
2026-05-06 07:44 47.68071 -16.81322 36183 ft 486 kts 257°
2026-05-06 07:44 47.66490 -16.89325 36183 ft 486 kts 257°
2026-05-06 07:45 47.64581 -16.98943 36183 ft 486 kts 257°
2026-05-06 07:45 47.62350 -17.10127 36183 ft 486 kts 257°
2026-05-06 07:46 47.60738 -17.18168 36192 ft 486 kts 257°
2026-05-06 07:46 47.58806 -17.27763 36186 ft 486 kts 257°
2026-05-06 07:47 47.56877 -17.37292 36187 ft 486 kts 257°
2026-05-06 07:47 47.54916 -17.46935 36193 ft 486 kts 257°
2026-05-06 07:48 47.52974 -17.56440 36192 ft 486 kts 257°
2026-05-06 07:48 47.51011 -17.66004 36195 ft 486 kts 257°
2026-05-06 07:49 47.49039 -17.75559 36197 ft 485 kts 257°
2026-05-06 07:49 47.47059 -17.85115 36197 ft 485 kts 258°
2026-05-06 07:50 47.45075 -17.94642 36194 ft 485 kts 258°
2026-05-06 07:50 47.43081 -18.04173 36197 ft 485 kts 258°
2026-05-06 07:51 47.41082 -18.13680 36197 ft 485 kts 258°
2026-05-06 07:51 47.39075 -18.23183 36199 ft 485 kts 258°
2026-05-06 07:52 47.37060 -18.32678 36199 ft 484 kts 258°
2026-05-06 07:52 47.35040 -18.42155 36202 ft 484 kts 257°
2026-05-06 07:53 47.33027 -18.51554 36202 ft 484 kts 257°
2026-05-06 07:53 47.30994 -18.61004 36204 ft 483 kts 257°
2026-05-06 07:54 47.28956 -18.70435 36207 ft 483 kts 257°
2026-05-06 07:54 47.26907 -18.79867 36210 ft 483 kts 257°
2026-05-06 07:55 47.24853 -18.89285 36209 ft 482 kts 257°
2026-05-06 07:55 47.22793 -18.98682 36210 ft 482 kts 257°
2026-05-06 07:56 47.20728 -19.08063 36209 ft 482 kts 257°
2026-05-06 07:56 47.18669 -19.17374 36201 ft 481 kts 257°
2026-05-06 07:57 47.16595 -19.26714 36214 ft 480 kts 257°
2026-05-06 07:57 47.14514 -19.36044 36215 ft 480 kts 257°
2026-05-06 07:58 47.12430 -19.45348 36215 ft 479 kts 257°
2026-05-06 07:58 47.10341 -19.54629 36218 ft 478 kts 257°
2026-05-06 07:59 47.08250 -19.63880 36215 ft 477 kts 257°
2026-05-06 07:59 47.06150 -19.73133 36215 ft 477 kts 256°
2026-05-06 08:00 47.04064 -19.82283 36217 ft 476 kts 256°
2026-05-06 08:00 47.01960 -19.91473 36223 ft 475 kts 256°
2026-05-06 08:01 47.00906 -19.96062 36421 ft 473 kts 256°
2026-05-06 08:01 46.99857 -20.00617 36751 ft 470 kts 256°
2026-05-06 08:01 46.98863 -20.05160 37001 ft 468 kts 258°
2026-05-06 08:01 46.97954 -20.09728 37194 ft 467 kts 259°
2026-05-06 08:02 46.97081 -20.14308 37382 ft 466 kts 259°
2026-05-06 08:02 46.96213 -20.18882 37560 ft 466 kts 259°
2026-05-06 08:02 46.95336 -20.23452 37744 ft 466 kts 258°
2026-05-06 08:02 46.94446 -20.28021 37909 ft 466 kts 258°
2026-05-06 08:03 46.93546 -20.32576 38074 ft 466 kts 258°
2026-05-06 08:03 46.92639 -20.37130 38211 ft 467 kts 258°
2026-05-06 08:03 46.90798 -20.46299 38227 ft 472 kts 258°
2026-05-06 08:04 46.88949 -20.55442 38226 ft 471 kts 258°
2026-05-06 08:04 46.87089 -20.64607 38227 ft 470 kts 258°
2026-05-06 08:05 46.85224 -20.73762 38231 ft 469 kts 258°
2026-05-06 08:05 46.83356 -20.82896 38231 ft 469 kts 258°
2026-05-06 08:06 46.81486 -20.92000 38231 ft 468 kts 258°
2026-05-06 08:06 46.79608 -21.01097 38233 ft 467 kts 258°
2026-05-06 08:07 46.77729 -21.10158 38233 ft 466 kts 258°
2026-05-06 08:07 46.75845 -21.19202 38234 ft 465 kts 258°
2026-05-06 08:08 46.73958 -21.28219 38234 ft 464 kts 258°
2026-05-06 08:08 46.72067 -21.37218 38234 ft 463 kts 258°
2026-05-06 08:09 46.70185 -21.46132 38235 ft 463 kts 258°
2026-05-06 08:09 46.68286 -21.55090 38234 ft 462 kts 258°
2026-05-06 08:10 46.66383 -21.64026 38236 ft 461 kts 258°
2026-05-06 08:10 46.64476 -21.72943 38240 ft 461 kts 258°
2026-05-06 08:11 46.62565 -21.81842 38240 ft 460 kts 258°
2026-05-06 08:11 46.60648 -21.90730 38240 ft 460 kts 258°
2026-05-06 08:12 46.58738 -21.99544 38240 ft 460 kts 258°
2026-05-06 08:12 46.56809 -22.08411 38238 ft 460 kts 258°
2026-05-06 08:13 46.54875 -22.17265 38238 ft 459 kts 258°
2026-05-06 08:13 46.52934 -22.26109 38241 ft 459 kts 258°
2026-05-06 08:14 46.50990 -22.34936 38242 ft 458 kts 258°
2026-05-06 08:14 46.49040 -22.43748 38243 ft 458 kts 258°
2026-05-06 08:15 46.47087 -22.52538 38242 ft 457 kts 258°
2026-05-06 08:15 46.45142 -22.61251 38245 ft 457 kts 258°
2026-05-06 08:16 46.43181 -22.70005 38246 ft 456 kts 258°
2026-05-06 08:16 46.41216 -22.78739 38243 ft 456 kts 258°
2026-05-06 08:17 46.39244 -22.87466 38241 ft 455 kts 258°
2026-05-06 08:17 46.37268 -22.96177 38241 ft 455 kts 258°
2026-05-06 08:18 46.35284 -23.04885 38243 ft 454 kts 258°
2026-05-06 08:18 46.33298 -23.13569 38241 ft 454 kts 258°
2026-05-06 08:19 46.31323 -23.22175 38247 ft 453 kts 258°
2026-05-06 08:19 46.29331 -23.30815 38246 ft 453 kts 258°
2026-05-06 08:20 46.27335 -23.39444 38232 ft 452 kts 258°
2026-05-06 08:20 46.25332 -23.48067 38234 ft 452 kts 258°
2026-05-06 08:21 46.23325 -23.56674 38243 ft 452 kts 258°
2026-05-06 08:21 46.21308 -23.65289 38240 ft 452 kts 258°
2026-05-06 08:22 46.19287 -23.73886 38240 ft 452 kts 258°
2026-05-06 08:22 46.17273 -23.82419 38237 ft 452 kts 258°
2026-05-06 08:23 46.15237 -23.91011 38244 ft 452 kts 257°
2026-05-06 08:23 46.13193 -23.99604 38237 ft 452 kts 257°
2026-05-06 08:24 46.11145 -24.08179 38243 ft 452 kts 257°
2026-05-06 08:24 46.09088 -24.16764 38241 ft 453 kts 257°
2026-05-06 08:25 46.07024 -24.25346 38241 ft 454 kts 256°
2026-05-06 08:25 46.04955 -24.33911 38241 ft 456 kts 256°
2026-05-06 08:26 46.02862 -24.42539 38238 ft 457 kts 256°
2026-05-06 08:26 46.00754 -24.51197 38236 ft 459 kts 255°
2026-05-06 08:27 45.98633 -24.59871 38238 ft 460 kts 255°
2026-05-06 08:27 45.96502 -24.68557 38236 ft 461 kts 255°
2026-05-06 08:28 45.94360 -24.77253 38234 ft 462 kts 255°
2026-05-06 08:28 45.92204 -24.85973 38232 ft 463 kts 254°
2026-05-06 08:29 45.90038 -24.94697 38231 ft 464 kts 254°
2026-05-06 08:29 45.87858 -25.03446 38232 ft 465 kts 254°
2026-05-06 08:30 45.86042 -25.10706 38237 ft 466 kts 254°
2026-05-06 08:30 45.83842 -25.19474 38238 ft 466 kts 253°
2026-05-06 08:31 45.81652 -25.28170 38235 ft 467 kts 253°
2026-05-06 08:31 45.79434 -25.36937 38232 ft 467 kts 253°
2026-05-06 08:32 45.77214 -25.45681 38229 ft 466 kts 253°
2026-05-06 08:32 45.75006 -25.54350 38232 ft 465 kts 253°
2026-05-06 08:33 45.72780 -25.63052 38230 ft 465 kts 254°
2026-05-06 08:33 45.70555 -25.71724 38227 ft 464 kts 254°
2026-05-06 08:34 45.67212 -25.84687 38227 ft 462 kts 254°
2026-05-06 08:35 45.64997 -25.93238 38228 ft 460 kts 254°
2026-05-06 08:35 45.62771 -26.01797 38225 ft 459 kts 254°
2026-05-06 08:36 45.60545 -26.10327 38226 ft 457 kts 254°
2026-05-06 08:36 45.58318 -26.18827 38223 ft 455 kts 254°
2026-05-06 08:37 45.56096 -26.27279 38223 ft 453 kts 254°
2026-05-06 08:37 45.53881 -26.35674 38221 ft 451 kts 254°
2026-05-06 08:38 45.51685 -26.43968 38226 ft 449 kts 254°
2026-05-06 08:38 45.49476 -26.52287 38224 ft 447 kts 254°
2026-05-06 08:39 45.47272 -26.60555 38227 ft 445 kts 254°
2026-05-06 08:39 45.45070 -26.68786 38221 ft 444 kts 254°
2026-05-06 08:40 45.42869 -26.76986 38222 ft 442 kts 254°
2026-05-06 08:40 45.40667 -26.85158 38225 ft 441 kts 254°
2026-05-06 08:41 45.38468 -26.93294 38223 ft 440 kts 254°
2026-05-06 08:41 45.36268 -27.01409 38220 ft 440 kts 254°
2026-05-06 08:42 45.34063 -27.09512 38221 ft 439 kts 254°
2026-05-06 08:42 45.31869 -27.17547 38216 ft 439 kts 254°
2026-05-06 08:43 45.29656 -27.25624 38215 ft 438 kts 253°
2026-05-06 08:43 45.27442 -27.33676 38225 ft 437 kts 253°
2026-05-06 08:44 45.25228 -27.41702 38225 ft 436 kts 253°
2026-05-06 08:44 45.23011 -27.49714 38217 ft 435 kts 253°
2026-05-06 08:45 45.20795 -27.57696 38222 ft 435 kts 253°
2026-05-06 08:45 45.18589 -27.65614 38215 ft 434 kts 253°
2026-05-06 08:46 45.16355 -27.73608 38218 ft 433 kts 253°
2026-05-06 08:46 45.14132 -27.81536 38219 ft 433 kts 253°
2026-05-06 08:47 45.11919 -27.89404 38219 ft 432 kts 253°
2026-05-06 08:47 45.09689 -27.97306 38217 ft 432 kts 253°
2026-05-06 08:48 45.07453 -28.05205 38216 ft 432 kts 253°
2026-05-06 08:48 45.05209 -28.13108 38215 ft 433 kts 252°
2026-05-06 08:49 45.02957 -28.21010 38212 ft 433 kts 252°
2026-05-06 08:49 45.00700 -28.28909 38211 ft 434 kts 252°
2026-05-06 08:50 44.98446 -28.36767 38210 ft 434 kts 252°
2026-05-06 08:50 44.96173 -28.44669 38210 ft 434 kts 252°
2026-05-06 08:51 44.93890 -28.52578 38212 ft 434 kts 252°
2026-05-06 08:51 44.91606 -28.60465 38211 ft 434 kts 252°
2026-05-06 08:52 44.89316 -28.68350 38211 ft 434 kts 252°
2026-05-06 08:52 44.87021 -28.76226 38206 ft 434 kts 252°
2026-05-06 08:53 44.84723 -28.84087 38210 ft 433 kts 252°
2026-05-06 08:53 44.82424 -28.91928 38203 ft 433 kts 252°
2026-05-06 08:54 44.80119 -28.99763 38203 ft 432 kts 252°
2026-05-06 08:54 44.77817 -29.07567 38205 ft 431 kts 252°
2026-05-06 08:55 44.75511 -29.15359 38201 ft 431 kts 252°
2026-05-06 08:55 44.73207 -29.23121 38199 ft 430 kts 251°
2026-05-06 08:56 44.70914 -29.30821 38199 ft 429 kts 251°
2026-05-06 08:56 44.68607 -29.38545 38195 ft 428 kts 251°
2026-05-06 08:57 44.66296 -29.46257 38192 ft 427 kts 251°
2026-05-06 08:57 44.63990 -29.53932 38193 ft 426 kts 251°
2026-05-06 08:58 44.61683 -29.61587 38188 ft 425 kts 251°
2026-05-06 08:58 44.59393 -29.69164 38186 ft 424 kts 251°
2026-05-06 08:59 44.57089 -29.76759 38186 ft 422 kts 251°
2026-05-06 08:59 44.54786 -29.84333 38187 ft 422 kts 251°
2026-05-06 09:00 44.52481 -29.91892 38178 ft 421 kts 251°
2026-05-06 09:00 44.50172 -29.99444 38181 ft 421 kts 251°
2026-05-06 09:01 44.47775 -30.06935 38179 ft 422 kts 249°
2026-05-06 09:01 44.45251 -30.14355 38180 ft 422 kts 249°
2026-05-06 09:02 44.42742 -30.21727 38175 ft 422 kts 249°
2026-05-06 09:02 44.40237 -30.29144 38174 ft 422 kts 249°
2026-05-06 09:03 44.37732 -30.36574 38178 ft 422 kts 249°
2026-05-06 09:03 44.35223 -30.43996 38170 ft 422 kts 249°
2026-05-06 09:04 44.32707 -30.51422 38175 ft 422 kts 249°
2026-05-06 09:04 44.30189 -30.58827 38177 ft 422 kts 249°
2026-05-06 09:05 44.27664 -30.66235 38174 ft 422 kts 249°
2026-05-06 09:05 44.25152 -30.73580 38169 ft 422 kts 249°
2026-05-06 09:06 44.22617 -30.80976 38174 ft 422 kts 249°
2026-05-06 09:06 44.20082 -30.88352 38174 ft 421 kts 248°
2026-05-06 09:07 44.17544 -30.95713 38177 ft 421 kts 248°
2026-05-06 09:07 44.15026 -31.02998 38177 ft 420 kts 248°
2026-05-06 09:08 44.12489 -31.10316 38181 ft 419 kts 248°
2026-05-06 09:08 44.09949 -31.17622 38180 ft 418 kts 248°
2026-05-06 09:09 44.07413 -31.24907 38177 ft 418 kts 248°
2026-05-06 09:09 44.04869 -31.32190 38179 ft 418 kts 248°
2026-05-06 09:10 44.02322 -31.39459 38179 ft 418 kts 248°
2026-05-06 09:10 43.99788 -31.46674 38178 ft 418 kts 248°
2026-05-06 09:11 43.97231 -31.53934 38183 ft 418 kts 248°
2026-05-06 09:11 43.94669 -31.61189 38184 ft 418 kts 248°
2026-05-06 09:12 43.92104 -31.68435 38183 ft 418 kts 248°
2026-05-06 09:12 43.89536 -31.75667 38184 ft 418 kts 248°
2026-05-06 09:13 43.86981 -31.82846 38181 ft 418 kts 248°
2026-05-06 09:13 43.84401 -31.90077 38188 ft 418 kts 248°
2026-05-06 09:14 43.81816 -31.97302 38187 ft 418 kts 247°
2026-05-06 09:14 43.79230 -32.04509 38191 ft 418 kts 247°
2026-05-06 09:15 43.76641 -32.11709 38196 ft 418 kts 247°
2026-05-06 09:15 43.74064 -32.18856 38194 ft 418 kts 247°
2026-05-06 09:16 43.71467 -32.26039 38191 ft 417 kts 247°
2026-05-06 09:16 43.68864 -32.33218 38194 ft 417 kts 247°
2026-05-06 09:17 43.66263 -32.40376 38202 ft 417 kts 247°
2026-05-06 09:17 43.63659 -32.47523 38204 ft 416 kts 247°
2026-05-06 09:18 43.61493 -32.53453 38197 ft 416 kts 247°
2026-05-06 09:18 43.58886 -32.60574 38203 ft 416 kts 247°
2026-05-06 09:19 43.56274 -32.67691 38209 ft 415 kts 247°
2026-05-06 09:19 43.53660 -32.74796 38209 ft 415 kts 247°
2026-05-06 09:20 43.51045 -32.81884 38213 ft 415 kts 247°
2026-05-06 09:20 43.48424 -32.88971 38214 ft 415 kts 246°
2026-05-06 09:21 43.45819 -32.95998 38216 ft 414 kts 246°
2026-05-06 09:21 43.43195 -33.03058 38212 ft 414 kts 246°
2026-05-06 09:22 43.40563 -33.10120 38230 ft 414 kts 246°
2026-05-06 09:22 43.37930 -33.17166 38233 ft 414 kts 246°
2026-05-06 09:23 43.35295 -33.24203 38233 ft 414 kts 246°
2026-05-06 09:23 43.32654 -33.31236 38230 ft 414 kts 246°
2026-05-06 09:24 43.30009 -33.38264 38232 ft 414 kts 246°
2026-05-06 09:24 43.27361 -33.45280 38234 ft 414 kts 246°
2026-05-06 09:25 43.24710 -33.52289 38236 ft 414 kts 246°
2026-05-06 09:25 43.22054 -33.59295 38237 ft 414 kts 246°
2026-05-06 09:26 43.19393 -33.66294 38241 ft 414 kts 246°
2026-05-06 09:26 43.16724 -33.73296 38242 ft 414 kts 246°
2026-05-06 09:27 43.14052 -33.80289 38245 ft 414 kts 246°
2026-05-06 09:27 43.11392 -33.87236 38244 ft 415 kts 246°
2026-05-06 09:28 43.08709 -33.94223 38253 ft 415 kts 245°
2026-05-06 09:28 43.06022 -34.01204 38252 ft 415 kts 245°
2026-05-06 09:29 43.03324 -34.08198 38254 ft 415 kts 245°
2026-05-06 09:29 43.00623 -34.15179 38255 ft 416 kts 245°
2026-05-06 09:30 42.97916 -34.22160 38258 ft 416 kts 245°
2026-05-06 09:30 42.95202 -34.29142 38259 ft 416 kts 245°
2026-05-06 09:31 42.92488 -34.36109 38261 ft 416 kts 245°
2026-05-06 09:31 42.89770 -34.43069 38268 ft 416 kts 245°
2026-05-06 09:32 42.87062 -34.49986 38268 ft 416 kts 245°
2026-05-06 09:32 42.84331 -34.56946 38269 ft 417 kts 245°
2026-05-06 09:33 42.81590 -34.63912 38275 ft 417 kts 245°
2026-05-06 09:33 42.78845 -34.70874 38272 ft 417 kts 245°
2026-05-06 09:34 42.76092 -34.77837 38276 ft 417 kts 245°
2026-05-06 09:34 42.73336 -34.84792 38275 ft 418 kts 245°
2026-05-06 09:35 42.70590 -34.91704 38275 ft 418 kts 245°
2026-05-06 09:35 42.67822 -34.98657 38281 ft 418 kts 245°
2026-05-06 09:36 42.65046 -35.05611 38282 ft 418 kts 245°
2026-05-06 09:36 42.62265 -35.12560 38289 ft 419 kts 245°
2026-05-06 09:37 42.59480 -35.19504 38289 ft 419 kts 245°
2026-05-06 09:37 42.56684 -35.26458 38292 ft 419 kts 245°
2026-05-06 09:38 42.53885 -35.33404 38292 ft 420 kts 245°
2026-05-06 09:38 42.51077 -35.40355 38299 ft 420 kts 245°
2026-05-06 09:39 42.48280 -35.47260 38296 ft 421 kts 245°
2026-05-06 09:39 42.45459 -35.54211 38299 ft 421 kts 245°
2026-05-06 09:40 42.42631 -35.61159 38303 ft 421 kts 245°
2026-05-06 09:40 42.38383 -35.71570 38306 ft 421 kts 245°
2026-05-06 09:41 42.35546 -35.78502 38316 ft 422 kts 245°
2026-05-06 09:41 42.32697 -35.85446 38298 ft 422 kts 245°
2026-05-06 09:42 42.29845 -35.92379 38314 ft 422 kts 245°
2026-05-06 09:42 42.26988 -35.99310 38317 ft 422 kts 245°
2026-05-06 09:43 42.24144 -36.06192 38308 ft 422 kts 245°
2026-05-06 09:43 42.21281 -36.13103 38317 ft 422 kts 245°
2026-05-06 09:44 42.18406 -36.20028 38323 ft 422 kts 245°
2026-05-06 09:44 42.15533 -36.26933 38321 ft 422 kts 245°
2026-05-06 09:45 42.12650 -36.33845 38330 ft 422 kts 245°
2026-05-06 09:45 42.09763 -36.40749 38326 ft 423 kts 245°
2026-05-06 09:46 42.06876 -36.47640 38323 ft 423 kts 245°
2026-05-06 09:46 42.04002 -36.54482 38325 ft 423 kts 245°
2026-05-06 09:47 42.01105 -36.61362 38335 ft 422 kts 245°
2026-05-06 09:47 41.98204 -36.68236 38337 ft 422 kts 245°
2026-05-06 09:48 41.95299 -36.75104 38339 ft 422 kts 245°
2026-05-06 09:48 41.92390 -36.81963 38344 ft 422 kts 245°
2026-05-06 09:49 41.89481 -36.88810 38344 ft 422 kts 245°
2026-05-06 09:49 41.86567 -36.95651 38347 ft 422 kts 245°
2026-05-06 09:50 41.83667 -37.02443 38346 ft 422 kts 245°
2026-05-06 09:50 41.80747 -37.09267 38353 ft 422 kts 245°
2026-05-06 09:51 41.77818 -37.16097 38353 ft 422 kts 245°
2026-05-06 09:51 41.74884 -37.22923 38354 ft 422 kts 245°
2026-05-06 09:52 41.71951 -37.29729 38351 ft 422 kts 245°
2026-05-06 09:52 41.69032 -37.36489 38357 ft 422 kts 245°
2026-05-06 09:53 41.66084 -37.43300 38362 ft 422 kts 245°
2026-05-06 09:53 41.63139 -37.50089 38357 ft 422 kts 245°
2026-05-06 09:54 41.60192 -37.56869 38359 ft 422 kts 245°
2026-05-06 09:54 41.57236 -37.63650 38373 ft 422 kts 245°
2026-05-06 09:55 41.54274 -37.70432 38365 ft 422 kts 245°
2026-05-06 09:55 41.51311 -37.77201 38365 ft 422 kts 245°
2026-05-06 09:56 41.48344 -37.83962 38368 ft 422 kts 245°
2026-05-06 09:56 41.45392 -37.90676 38369 ft 422 kts 245°
2026-05-06 09:57 41.42417 -37.97427 38371 ft 422 kts 245°
2026-05-06 09:57 41.39438 -38.04171 38376 ft 422 kts 245°
2026-05-06 09:58 41.36453 -38.10916 38379 ft 422 kts 245°
2026-05-06 09:58 41.33467 -38.17644 38383 ft 422 kts 245°
2026-05-06 09:59 41.30477 -38.24369 38385 ft 422 kts 245°
2026-05-06 09:59 41.27483 -38.31087 38393 ft 422 kts 245°
2026-05-06 10:00 41.24486 -38.37795 38391 ft 422 kts 245°
2026-05-06 10:00 41.21509 -38.44447 38389 ft 421 kts 245°
2026-05-06 10:01 41.18491 -38.51173 38390 ft 421 kts 245°
2026-05-06 10:01 41.15511 -38.57802 38392 ft 421 kts 245°
2026-05-06 10:02 41.12511 -38.64462 38388 ft 420 kts 245°
2026-05-06 10:02 41.10015 -38.69990 38396 ft 420 kts 246°
2026-05-06 10:03 41.06506 -38.77743 38384 ft 419 kts 246°
2026-05-06 10:03 41.04006 -38.83258 38392 ft 419 kts 246°
2026-05-06 10:04 41.00507 -38.90957 38395 ft 419 kts 246°
2026-05-06 10:04 40.97496 -38.97569 38397 ft 419 kts 246°
2026-05-06 10:05 40.94992 -39.03054 38400 ft 419 kts 246°
2026-05-06 10:05 40.91976 -39.09649 38399 ft 419 kts 246°
2026-05-06 10:06 40.88952 -39.16247 38394 ft 418 kts 246°
2026-05-06 10:06 40.85932 -39.22821 38407 ft 418 kts 246°
2026-05-06 10:07 40.82933 -39.29338 38403 ft 418 kts 246°
2026-05-06 10:07 40.79889 -39.35937 38405 ft 418 kts 246°
2026-05-06 10:08 40.76886 -39.42434 38403 ft 417 kts 246°
2026-05-06 10:08 40.73853 -39.48984 38410 ft 418 kts 246°
2026-05-06 10:09 40.70821 -39.55515 38404 ft 417 kts 246°
2026-05-06 10:09 40.67783 -39.62045 38410 ft 418 kts 246°
2026-05-06 10:10 40.64756 -39.68538 38406 ft 417 kts 246°
2026-05-06 10:10 40.61711 -39.75057 38406 ft 418 kts 246°
2026-05-06 10:11 40.58661 -39.81572 38406 ft 418 kts 246°
2026-05-06 10:11 40.55608 -39.88080 38416 ft 418 kts 246°
2026-05-06 10:12 40.52548 -39.94588 38417 ft 418 kts 246°
2026-05-06 10:12 40.49206 -40.00910 38421 ft 428 kts 237°
2026-05-06 10:13 40.45169 -40.06644 38429 ft 432 kts 235°
2026-05-06 10:13 40.40972 -40.12310 38421 ft 433 kts 235°
2026-05-06 10:14 40.36756 -40.17963 38415 ft 432 kts 235°
2026-05-06 10:14 40.32559 -40.23611 38421 ft 432 kts 235°
2026-05-06 10:15 40.28364 -40.29262 38420 ft 432 kts 235°
2026-05-06 10:15 40.24195 -40.34872 38424 ft 432 kts 235°
2026-05-06 10:16 40.19996 -40.40509 38421 ft 432 kts 235°
2026-05-06 10:16 40.15797 -40.46135 38423 ft 432 kts 235°
2026-05-06 10:17 40.11597 -40.51753 38421 ft 432 kts 234°
2026-05-06 10:17 40.07390 -40.57368 38422 ft 432 kts 234°
2026-05-06 10:18 40.03182 -40.62974 38425 ft 431 kts 234°
2026-05-06 10:18 39.98980 -40.68561 38430 ft 431 kts 234°
2026-05-06 10:19 39.94805 -40.74104 38419 ft 431 kts 234°
2026-05-06 10:19 39.90602 -40.79674 38428 ft 430 kts 235°
2026-05-06 10:20 39.86404 -40.85225 38428 ft 430 kts 234°
2026-05-06 10:20 39.82195 -40.90781 38428 ft 430 kts 235°
2026-05-06 10:21 39.77997 -40.96312 38426 ft 430 kts 234°
2026-05-06 10:21 39.73792 -41.01843 38429 ft 430 kts 235°
2026-05-06 10:22 39.69590 -41.07359 38426 ft 429 kts 235°
2026-05-06 10:22 39.65408 -41.12839 38426 ft 429 kts 235°
2026-05-06 10:23 39.61194 -41.18351 38425 ft 429 kts 235°
2026-05-06 10:23 39.56977 -41.23857 38430 ft 430 kts 235°
2026-05-06 10:24 39.52760 -41.29352 38429 ft 430 kts 234°
2026-05-06 10:24 39.48529 -41.34855 38433 ft 431 kts 234°
2026-05-06 10:25 39.44292 -41.40357 38429 ft 431 kts 234°
2026-05-06 10:25 39.40073 -41.45826 38428 ft 432 kts 234°
2026-05-06 10:26 39.35818 -41.51332 38429 ft 433 kts 234°
2026-05-06 10:26 39.31549 -41.56847 38433 ft 434 kts 234°
2026-05-06 10:27 39.27273 -41.62359 38420 ft 435 kts 234°
2026-05-06 10:27 39.22984 -41.67876 38426 ft 435 kts 234°
2026-05-06 10:28 39.18688 -41.73392 38428 ft 436 kts 234°
2026-05-06 10:28 39.14408 -41.78879 38431 ft 437 kts 234°
2026-05-06 10:29 39.10098 -41.84393 38426 ft 437 kts 234°
2026-05-06 10:29 39.05774 -41.89915 38431 ft 438 kts 234°
2026-05-06 10:30 39.01446 -41.95433 38430 ft 438 kts 234°
2026-05-06 10:30 38.97108 -42.00954 38432 ft 439 kts 234°
2026-05-06 10:31 38.92760 -42.06476 38429 ft 439 kts 233°
2026-05-06 10:31 38.88406 -42.11996 38434 ft 440 kts 233°
2026-05-06 10:32 38.84052 -42.17507 38432 ft 440 kts 233°
2026-05-06 10:32 38.79689 -42.23019 38440 ft 440 kts 233°
2026-05-06 10:33 38.75351 -42.28489 38432 ft 441 kts 233°
2026-05-06 10:33 38.70977 -42.33995 38431 ft 441 kts 233°
2026-05-06 10:34 38.66593 -42.39502 38425 ft 441 kts 233°
2026-05-06 10:34 38.62201 -42.45011 38427 ft 442 kts 233°
2026-05-06 10:35 38.57809 -42.50509 38427 ft 442 kts 233°
2026-05-06 10:35 38.53407 -42.56009 38429 ft 442 kts 232°
2026-05-06 10:36 38.49004 -42.61501 38424 ft 442 kts 232°
2026-05-06 10:36 38.44598 -42.66987 38426 ft 442 kts 232°
2026-05-06 10:37 38.40222 -42.72426 38424 ft 442 kts 232°
2026-05-06 10:37 38.35810 -42.77900 38425 ft 442 kts 232°
2026-05-06 10:38 38.31397 -42.83365 38424 ft 442 kts 232°
2026-05-06 10:38 38.26972 -42.88835 38423 ft 442 kts 232°
2026-05-06 10:39 38.22557 -42.94283 38419 ft 442 kts 232°
2026-05-06 10:39 38.18163 -42.99689 38585 ft 441 kts 234°
2026-05-06 10:40 38.15970 -43.02372 38423 ft 434 kts 234°
2026-05-06 10:40 38.13804 -43.05027 38417 ft 432 kts 234°
2026-05-06 10:40 38.09493 -43.10330 38415 ft 431 kts 234°
2026-05-06 10:41 38.05186 -43.15622 38412 ft 431 kts 234°
2026-05-06 10:41 38.00869 -43.20908 38414 ft 431 kts 234°
2026-05-06 10:42 37.96552 -43.26180 38413 ft 431 kts 234°
2026-05-06 10:42 37.92228 -43.31450 38409 ft 431 kts 234°
2026-05-06 10:43 37.87927 -43.36684 38406 ft 431 kts 234°
2026-05-06 10:44 37.81432 -43.44572 38408 ft 431 kts 234°
2026-05-06 10:44 37.77096 -43.49826 38404 ft 431 kts 233°
2026-05-06 10:45 37.72762 -43.55070 38414 ft 432 kts 233°
2026-05-06 10:45 37.68410 -43.60325 38403 ft 432 kts 233°
2026-05-06 10:46 37.64092 -43.65531 38402 ft 432 kts 233°
2026-05-06 10:46 37.59745 -43.70762 38396 ft 432 kts 233°
2026-05-06 10:47 37.55392 -43.75993 38393 ft 432 kts 233°
2026-05-06 10:47 37.51036 -43.81218 38395 ft 432 kts 233°
2026-05-06 10:48 37.46672 -43.86443 38391 ft 433 kts 233°
2026-05-06 10:48 37.42309 -43.91659 38392 ft 433 kts 233°
2026-05-06 10:49 37.37941 -43.96872 38389 ft 433 kts 233°
2026-05-06 10:49 37.33566 -44.02084 38390 ft 433 kts 232°
2026-05-06 10:50 37.29927 -44.06413 38385 ft 433 kts 232°
2026-05-06 10:50 37.24838 -44.12456 38385 ft 433 kts 232°
2026-05-06 10:51 37.21170 -44.16804 38384 ft 433 kts 232°
2026-05-06 10:51 37.16789 -44.21990 38383 ft 433 kts 232°
2026-05-06 10:52 37.12427 -44.27145 38387 ft 433 kts 231°
2026-05-06 10:52 37.08041 -44.32319 38383 ft 433 kts 231°
2026-05-06 10:53 37.03654 -44.37486 38372 ft 432 kts 231°
2026-05-06 10:53 36.99262 -44.42650 38379 ft 433 kts 231°
2026-05-06 10:54 36.94898 -44.47772 38382 ft 433 kts 231°
2026-05-06 10:54 36.90508 -44.52918 38382 ft 432 kts 231°
2026-05-06 10:55 36.86116 -44.58056 38374 ft 433 kts 230°
2026-05-06 10:55 36.81720 -44.63191 38378 ft 433 kts 230°
2026-05-06 10:56 36.77321 -44.68320 38378 ft 433 kts 230°
2026-05-06 10:56 36.72913 -44.73452 38369 ft 433 kts 230°
2026-05-06 10:57 36.68504 -44.78578 38369 ft 433 kts 230°
2026-05-06 10:57 36.64088 -44.83702 38369 ft 434 kts 230°
2026-05-06 10:58 36.59669 -44.88822 38367 ft 434 kts 230°
2026-05-06 10:58 36.55243 -44.93941 38365 ft 434 kts 230°
2026-05-06 10:59 36.50841 -44.99025 38362 ft 434 kts 230°
2026-05-06 10:59 36.46353 -45.04082 38362 ft 436 kts 228°
2026-05-06 11:00 36.41749 -45.09008 38360 ft 437 kts 227°
2026-05-06 11:00 36.37172 -45.13893 38360 ft 436 kts 227°
2026-05-06 11:01 36.32575 -45.18832 38357 ft 436 kts 227°
2026-05-06 11:01 36.27993 -45.23768 38359 ft 437 kts 227°
2026-05-06 11:02 36.23406 -45.28704 38353 ft 437 kts 227°
2026-05-06 11:02 36.18805 -45.33645 38350 ft 437 kts 227°
2026-05-06 11:03 36.14207 -45.38575 38353 ft 438 kts 227°
2026-05-06 11:03 36.09601 -45.43504 38350 ft 438 kts 227°
2026-05-06 11:04 36.04991 -45.48429 38347 ft 437 kts 227°
2026-05-06 11:04 36.00386 -45.53342 38348 ft 438 kts 227°
2026-05-06 11:05 35.95771 -45.58256 38344 ft 438 kts 226°
2026-05-06 11:05 35.91153 -45.63167 38342 ft 438 kts 226°
2026-05-06 11:06 35.86531 -45.68073 38341 ft 438 kts 226°
2026-05-06 11:06 35.81908 -45.72974 38342 ft 438 kts 226°
2026-05-06 11:07 35.77305 -45.77845 38342 ft 439 kts 226°
2026-05-06 11:07 35.72663 -45.82750 38338 ft 439 kts 226°
2026-05-06 11:08 35.68020 -45.87648 38336 ft 440 kts 226°
2026-05-06 11:08 35.63372 -45.92544 38344 ft 440 kts 226°
2026-05-06 11:09 35.58719 -45.97437 38343 ft 440 kts 226°
2026-05-06 11:09 35.54079 -46.02308 38339 ft 441 kts 226°
2026-05-06 11:10 35.49413 -46.07200 38333 ft 441 kts 226°
2026-05-06 11:10 35.44741 -46.12089 38329 ft 442 kts 226°
2026-05-06 11:11 35.40058 -46.16982 38330 ft 442 kts 226°
2026-05-06 11:11 35.35372 -46.21871 38325 ft 443 kts 225°
2026-05-06 11:12 35.30672 -46.26766 38329 ft 443 kts 225°
2026-05-06 11:12 35.25966 -46.31661 38331 ft 443 kts 225°
2026-05-06 11:13 35.21291 -46.36514 38323 ft 444 kts 225°
2026-05-06 11:13 35.16584 -46.41395 38325 ft 444 kts 225°
2026-05-06 11:14 35.11865 -46.46279 38321 ft 444 kts 225°
2026-05-06 11:14 35.07140 -46.51161 38322 ft 444 kts 225°
2026-05-06 11:15 35.02422 -46.56029 38320 ft 444 kts 225°
2026-05-06 11:15 34.97694 -46.60900 38323 ft 445 kts 225°
2026-05-06 11:16 34.92990 -46.65738 38321 ft 445 kts 225°
2026-05-06 11:16 34.88252 -46.70605 38322 ft 445 kts 225°
2026-05-06 11:17 34.83520 -46.75457 38323 ft 444 kts 225°
2026-05-06 11:17 34.78792 -46.80297 38317 ft 444 kts 225°
2026-05-06 11:18 34.74089 -46.85105 38320 ft 444 kts 225°
2026-05-06 11:18 34.69353 -46.89939 38316 ft 444 kts 225°
2026-05-06 11:19 34.64624 -46.94758 38318 ft 444 kts 225°
2026-05-06 11:19 34.59884 -46.99581 38322 ft 444 kts 224°
2026-05-06 11:20 34.55151 -47.04389 38317 ft 444 kts 224°
2026-05-06 11:20 34.50416 -47.09192 38317 ft 444 kts 224°
2026-05-06 11:21 34.45681 -47.13988 38314 ft 443 kts 224°
2026-05-06 11:21 34.40973 -47.18749 38315 ft 443 kts 224°
2026-05-06 11:22 34.36235 -47.23533 38314 ft 443 kts 224°
2026-05-06 11:22 34.31499 -47.28308 38311 ft 443 kts 224°
2026-05-06 11:23 34.26762 -47.33077 38311 ft 443 kts 224°
2026-05-06 11:23 34.22018 -47.37846 38309 ft 443 kts 224°
2026-05-06 11:24 34.17275 -47.42605 38309 ft 443 kts 224°
2026-05-06 11:24 34.12531 -47.47360 38307 ft 443 kts 224°
2026-05-06 11:25 34.07787 -47.52106 38303 ft 443 kts 224°
2026-05-06 11:25 34.03043 -47.56845 38308 ft 442 kts 224°
2026-05-06 11:26 33.98303 -47.61574 38304 ft 442 kts 224°
2026-05-06 11:26 33.93592 -47.66266 38304 ft 442 kts 224°
2026-05-06 11:27 33.88857 -47.70976 38299 ft 441 kts 224°
2026-05-06 11:27 33.84126 -47.75674 38306 ft 441 kts 224°
2026-05-06 11:28 33.79399 -47.80362 38305 ft 440 kts 224°
2026-05-06 11:28 33.74668 -47.85047 38309 ft 440 kts 224°
2026-05-06 11:29 33.69947 -47.89715 38303 ft 439 kts 224°
2026-05-06 11:29 33.65268 -47.94334 38298 ft 438 kts 224°
2026-05-06 11:30 33.60561 -47.98975 38314 ft 437 kts 224°
2026-05-06 11:30 33.55861 -48.03602 38297 ft 437 kts 224°
2026-05-06 11:31 33.51166 -48.08218 38293 ft 436 kts 224°
2026-05-06 11:31 33.46475 -48.12822 38310 ft 436 kts 224°
2026-05-06 11:32 33.41783 -48.17421 38294 ft 435 kts 224°
2026-05-06 11:32 33.37123 -48.21983 38297 ft 435 kts 224°
2026-05-06 11:33 33.32433 -48.26567 38296 ft 435 kts 224°
2026-05-06 11:33 33.27746 -48.31141 38296 ft 435 kts 224°
2026-05-06 11:34 33.23059 -48.35708 38292 ft 435 kts 224°
2026-05-06 11:34 33.18371 -48.40271 38293 ft 435 kts 224°
2026-05-06 11:35 33.13680 -48.44830 38294 ft 435 kts 224°
2026-05-06 11:35 33.08981 -48.49390 38293 ft 435 kts 224°
2026-05-06 11:36 33.04318 -48.53909 38294 ft 435 kts 224°
2026-05-06 11:36 32.99623 -48.58452 38292 ft 435 kts 224°
2026-05-06 11:37 32.94923 -48.62993 38293 ft 435 kts 224°
2026-05-06 11:37 32.90223 -48.67528 38291 ft 435 kts 224°
2026-05-06 11:38 32.86310 -48.71298 38289 ft 435 kts 224°
2026-05-06 11:38 32.80814 -48.76588 38289 ft 435 kts 223°
2026-05-06 11:39 32.76898 -48.80351 38291 ft 435 kts 223°
2026-05-06 11:39 32.72191 -48.84868 38287 ft 435 kts 223°
2026-05-06 11:40 32.67481 -48.89383 38287 ft 435 kts 223°
2026-05-06 11:40 32.62774 -48.93887 38290 ft 435 kts 223°
2026-05-06 11:41 32.58097 -48.98357 38287 ft 435 kts 223°
2026-05-06 11:41 32.53389 -49.02850 38285 ft 434 kts 223°
2026-05-06 11:42 32.48677 -49.07342 38285 ft 434 kts 223°
2026-05-06 11:42 32.43962 -49.11829 38283 ft 434 kts 223°
2026-05-06 11:43 32.39238 -49.16319 38280 ft 435 kts 223°
2026-05-06 11:43 32.34521 -49.20796 38279 ft 435 kts 223°
2026-05-06 11:44 32.27442 -49.27503 38274 ft 434 kts 223°
2026-05-06 11:44 32.22755 -49.31937 38275 ft 434 kts 223°
2026-05-06 11:45 32.18034 -49.36396 38278 ft 434 kts 223°
2026-05-06 11:45 32.13316 -49.40846 38284 ft 434 kts 222°
2026-05-06 11:46 32.08588 -49.45301 38275 ft 434 kts 222°
2026-05-06 11:46 32.03862 -49.49746 38272 ft 434 kts 222°
2026-05-06 11:47 31.99135 -49.54187 38281 ft 434 kts 222°
2026-05-06 11:47 31.94403 -49.58626 38275 ft 434 kts 222°
2026-05-06 11:48 31.89673 -49.63058 38271 ft 435 kts 222°
2026-05-06 11:48 31.84939 -49.67487 38271 ft 435 kts 222°
2026-05-06 11:49 31.80231 -49.71886 38282 ft 435 kts 222°
2026-05-06 11:49 31.75493 -49.76308 38260 ft 435 kts 222°
2026-05-06 11:50 31.70758 -49.80720 38274 ft 435 kts 222°
2026-05-06 11:50 31.66013 -49.85135 38277 ft 434 kts 222°
2026-05-06 11:51 31.61274 -49.89539 38272 ft 435 kts 221°
2026-05-06 11:51 31.56533 -49.93940 38268 ft 435 kts 221°
2026-05-06 11:52 31.51783 -49.98343 38325 ft 435 kts 221°
2026-05-06 11:52 31.49419 -50.00531 38635 ft 432 kts 221°
2026-05-06 11:52 31.47030 -50.02644 39012 ft 429 kts 219°
2026-05-06 11:53 31.44596 -50.04666 39252 ft 428 kts 218°
2026-05-06 11:53 31.42178 -50.06624 39405 ft 428 kts 218°
2026-05-06 11:53 31.39723 -50.08605 39554 ft 428 kts 218°
2026-05-06 11:53 31.37281 -50.10588 39708 ft 428 kts 219°
2026-05-06 11:54 31.34844 -50.12581 39854 ft 427 kts 219°
2026-05-06 11:54 31.32411 -50.14582 40004 ft 427 kts 219°
2026-05-06 11:54 31.29980 -50.16591 40151 ft 427 kts 219°
2026-05-06 11:54 31.27550 -50.18600 40250 ft 428 kts 219°
2026-05-06 11:55 31.22662 -50.22646 40263 ft 432 kts 219°
2026-05-06 11:55 31.17776 -50.26679 40261 ft 432 kts 219°
2026-05-06 11:56 31.12869 -50.30721 40259 ft 432 kts 219°
2026-05-06 11:56 31.07962 -50.34759 40259 ft 431 kts 219°
2026-05-06 11:57 31.03045 -50.38800 40259 ft 432 kts 219°
2026-05-06 11:57 30.98135 -50.42830 40260 ft 432 kts 219°
2026-05-06 11:58 30.93220 -50.46859 40260 ft 431 kts 219°
2026-05-06 11:58 30.88309 -50.50880 40260 ft 432 kts 219°
2026-05-06 11:59 30.83415 -50.54882 40258 ft 432 kts 219°
2026-05-06 11:59 30.78497 -50.58897 40257 ft 431 kts 219°
2026-05-06 12:00 30.73579 -50.62909 40252 ft 431 kts 219°
2026-05-06 12:00 30.68662 -50.66913 40253 ft 431 kts 219°
2026-05-06 12:01 30.63776 -50.70888 40256 ft 431 kts 218°
2026-05-06 12:01 30.58858 -50.74884 40252 ft 431 kts 218°
2026-05-06 12:02 30.53936 -50.78878 40252 ft 431 kts 218°
2026-05-06 12:02 30.49012 -50.82869 40250 ft 432 kts 218°
2026-05-06 12:03 30.44085 -50.86857 40255 ft 432 kts 218°
2026-05-06 12:03 30.39155 -50.90842 40250 ft 432 kts 218°
2026-05-06 12:04 30.34223 -50.94824 40252 ft 432 kts 218°
2026-05-06 12:04 30.29320 -50.98778 40254 ft 432 kts 218°
2026-05-06 12:05 30.24388 -51.02749 40252 ft 432 kts 218°
2026-05-06 12:05 30.19441 -51.06729 40259 ft 432 kts 218°
2026-05-06 12:06 30.14506 -51.10693 40243 ft 432 kts 218°
2026-05-06 12:06 30.09569 -51.14655 40244 ft 432 kts 218°
2026-05-06 12:07 30.04623 -51.18618 40252 ft 432 kts 218°
2026-05-06 12:07 29.99711 -51.22550 40259 ft 432 kts 218°
2026-05-06 12:08 29.94774 -51.26497 40244 ft 432 kts 218°
2026-05-06 12:08 29.89835 -51.30440 40238 ft 432 kts 218°
2026-05-06 12:09 29.84886 -51.34386 40240 ft 432 kts 218°
2026-05-06 12:09 29.79941 -51.38325 40238 ft 432 kts 218°
2026-05-06 12:10 29.74995 -51.42259 40252 ft 432 kts 218°
2026-05-06 12:10 29.70049 -51.46189 40243 ft 432 kts 218°
2026-05-06 12:11 29.65134 -51.50089 40250 ft 432 kts 218°
2026-05-06 12:11 29.60178 -51.54017 40246 ft 432 kts 218°
2026-05-06 12:12 29.55231 -51.57933 40245 ft 432 kts 218°
2026-05-06 12:12 29.50278 -51.61849 40243 ft 432 kts 218°
2026-05-06 12:13 29.45328 -51.65759 40243 ft 432 kts 218°
2026-05-06 12:13 29.40377 -51.69664 40245 ft 432 kts 218°
2026-05-06 12:14 29.35457 -51.73540 40242 ft 432 kts 218°
2026-05-06 12:14 29.30503 -51.77437 40238 ft 432 kts 218°
2026-05-06 12:15 29.25546 -51.81333 40244 ft 432 kts 218°
2026-05-06 12:15 29.20587 -51.85226 40243 ft 432 kts 218°
2026-05-06 12:16 29.15626 -51.89116 40243 ft 432 kts 218°
2026-05-06 12:16 29.10666 -51.93000 40241 ft 432 kts 218°
2026-05-06 12:17 29.05700 -51.96884 40238 ft 432 kts 218°
2026-05-06 12:17 29.00743 -52.00757 40238 ft 432 kts 218°
2026-05-06 12:18 28.95778 -52.04631 40237 ft 431 kts 218°
2026-05-06 12:18 28.90826 -52.08491 40238 ft 432 kts 218°
2026-05-06 12:19 28.85866 -52.12352 40239 ft 431 kts 218°
2026-05-06 12:19 28.80904 -52.16210 40237 ft 431 kts 217°
2026-05-06 12:20 28.75973 -52.20040 40242 ft 431 kts 217°
2026-05-06 12:20 28.71009 -52.23890 40236 ft 431 kts 217°
2026-05-06 12:21 28.66038 -52.27742 40238 ft 431 kts 217°
2026-05-06 12:21 28.61076 -52.31583 40238 ft 431 kts 217°
2026-05-06 12:22 28.56106 -52.35425 40238 ft 431 kts 217°
2026-05-06 12:22 28.51974 -52.38616 40235 ft 431 kts 217°
2026-05-06 12:23 28.46197 -52.43072 40235 ft 432 kts 217°
2026-05-06 12:23 28.41226 -52.46902 40236 ft 432 kts 217°
2026-05-06 12:24 28.36250 -52.50731 40233 ft 432 kts 217°
2026-05-06 12:24 28.31273 -52.54556 40233 ft 432 kts 217°
2026-05-06 12:25 28.26327 -52.58353 40234 ft 432 kts 217°
2026-05-06 12:25 28.21351 -52.62169 40234 ft 432 kts 217°
2026-05-06 12:26 28.17211 -52.65341 40232 ft 432 kts 217°
2026-05-06 12:26 28.13000 -52.68564 40235 ft 432 kts 217°
2026-05-06 12:27 28.07985 -52.72397 40232 ft 432 kts 217°
2026-05-06 12:27 28.03006 -52.76199 40233 ft 432 kts 217°
2026-05-06 12:28 27.98022 -52.80002 40232 ft 432 kts 217°
2026-05-06 12:28 27.93037 -52.83799 40232 ft 432 kts 217°
2026-05-06 12:29 27.88077 -52.87574 40230 ft 432 kts 217°
2026-05-06 12:29 27.83092 -52.91363 40230 ft 432 kts 217°
2026-05-06 12:30 27.78100 -52.95154 40233 ft 432 kts 217°
2026-05-06 12:30 27.73108 -52.98940 40232 ft 432 kts 217°
2026-05-06 12:31 27.68112 -53.02725 40232 ft 432 kts 217°
2026-05-06 12:31 27.63118 -53.06504 40232 ft 432 kts 217°
2026-05-06 12:32 27.58121 -53.10282 40229 ft 432 kts 217°
2026-05-06 12:32 27.53129 -53.14051 40232 ft 432 kts 217°
2026-05-06 12:33 27.48162 -53.17798 40230 ft 432 kts 217°
2026-05-06 12:33 27.43159 -53.21567 40230 ft 432 kts 217°
2026-05-06 12:34 27.38144 -53.25341 40229 ft 433 kts 217°
2026-05-06 12:34 27.33139 -53.29103 40228 ft 433 kts 217°
2026-05-06 12:35 27.28131 -53.32863 40228 ft 433 kts 217°
2026-05-06 12:35 27.23121 -53.36622 40228 ft 433 kts 216°
2026-05-06 12:36 27.18145 -53.40350 40227 ft 433 kts 216°
2026-05-06 12:36 27.13132 -53.44102 40225 ft 433 kts 216°
2026-05-06 12:37 27.08111 -53.47855 40225 ft 433 kts 216°
2026-05-06 12:37 27.03095 -53.51602 40224 ft 433 kts 216°
2026-05-06 12:38 26.98077 -53.55345 40228 ft 433 kts 216°
2026-05-06 12:38 26.93052 -53.59089 40223 ft 434 kts 216°
2026-05-06 12:39 26.88025 -53.62832 40227 ft 434 kts 216°
2026-05-06 12:39 26.82997 -53.66570 40222 ft 434 kts 216°
2026-05-06 12:40 26.77993 -53.70287 40226 ft 434 kts 216°
2026-05-06 12:40 26.72955 -53.74025 40226 ft 434 kts 216°
2026-05-06 12:41 26.67917 -53.77759 40222 ft 434 kts 216°
2026-05-06 12:41 26.62880 -53.81488 40222 ft 434 kts 216°
2026-05-06 12:42 26.57842 -53.85214 40221 ft 434 kts 216°
2026-05-06 12:42 26.52822 -53.88922 40219 ft 434 kts 216°
2026-05-06 12:43 26.47770 -53.92651 40222 ft 435 kts 216°
2026-05-06 12:43 26.42722 -53.96372 40222 ft 435 kts 216°
2026-05-06 12:44 26.37667 -54.00095 40216 ft 435 kts 216°
2026-05-06 12:44 26.32621 -54.03807 40221 ft 435 kts 216°
2026-05-06 12:45 26.27557 -54.07528 40222 ft 435 kts 216°
2026-05-06 12:46 26.20003 -54.13071 40220 ft 435 kts 216°
2026-05-06 12:46 26.14943 -54.16780 40220 ft 436 kts 216°
2026-05-06 12:47 26.09871 -54.20493 40219 ft 436 kts 216°
2026-05-06 12:47 26.04802 -54.24200 40220 ft 436 kts 216°
2026-05-06 12:48 25.99759 -54.27885 40220 ft 436 kts 216°
2026-05-06 12:48 25.94678 -54.31593 40215 ft 436 kts 216°
2026-05-06 12:49 25.89601 -54.35294 40215 ft 436 kts 216°
2026-05-06 12:49 25.84525 -54.38992 40213 ft 436 kts 216°
2026-05-06 12:50 25.79442 -54.42689 40218 ft 436 kts 216°
2026-05-06 12:50 25.74361 -54.46382 40217 ft 436 kts 216°
2026-05-06 12:51 25.69311 -54.50048 40217 ft 437 kts 216°
2026-05-06 12:51 25.64228 -54.53735 40215 ft 437 kts 216°
2026-05-06 12:52 25.59134 -54.57426 40215 ft 437 kts 216°
2026-05-06 12:52 25.54041 -54.61112 40218 ft 437 kts 216°
2026-05-06 12:53 25.48945 -54.64796 40216 ft 437 kts 216°
2026-05-06 12:53 25.43881 -54.68454 40215 ft 437 kts 216°
2026-05-06 12:54 25.38782 -54.72134 40218 ft 437 kts 216°
2026-05-06 12:54 25.33681 -54.75811 40213 ft 437 kts 216°
2026-05-06 12:55 25.28575 -54.79487 40215 ft 437 kts 215°
2026-05-06 12:55 25.23474 -54.83157 40210 ft 437 kts 215°
2026-05-06 12:56 25.18369 -54.86825 40210 ft 437 kts 215°
2026-05-06 12:56 25.13303 -54.90463 40210 ft 438 kts 215°
2026-05-06 12:57 25.08195 -54.94126 40210 ft 438 kts 215°
2026-05-06 12:57 25.03083 -54.97788 40209 ft 438 kts 215°
2026-05-06 12:58 24.97952 -55.01419 40211 ft 439 kts 213°
2026-05-06 12:58 24.92597 -55.04676 40227 ft 440 kts 211°
2026-05-06 12:59 24.87207 -55.07799 40206 ft 440 kts 211°
2026-05-06 12:59 24.81810 -55.10992 40213 ft 440 kts 211°
2026-05-06 13:00 24.76433 -55.14225 40205 ft 440 kts 211°
2026-05-06 13:00 24.71062 -55.17466 40211 ft 440 kts 211°
2026-05-06 13:01 24.65691 -55.20703 40208 ft 440 kts 211°
2026-05-06 13:01 24.60314 -55.23938 40211 ft 441 kts 211°
2026-05-06 13:02 24.54929 -55.27173 40211 ft 441 kts 211°
2026-05-06 13:02 24.49544 -55.30405 40212 ft 441 kts 211°
2026-05-06 13:03 24.44180 -55.33621 40205 ft 441 kts 211°
2026-05-06 13:03 24.38788 -55.36851 40211 ft 441 kts 211°
2026-05-06 13:04 24.33393 -55.40079 40209 ft 442 kts 211°
2026-05-06 13:04 24.27990 -55.43310 40209 ft 442 kts 211°
2026-05-06 13:05 24.22597 -55.46530 40202 ft 442 kts 211°
2026-05-06 13:05 24.17197 -55.49753 40211 ft 442 kts 211°
2026-05-06 13:06 24.11791 -55.52975 40199 ft 442 kts 211°
2026-05-06 13:06 24.06381 -55.56197 40205 ft 442 kts 211°
2026-05-06 13:07 24.01005 -55.59395 40199 ft 442 kts 211°
2026-05-06 13:07 23.95592 -55.62612 40203 ft 443 kts 211°
2026-05-06 13:08 23.90171 -55.65831 40205 ft 443 kts 211°
2026-05-06 13:08 23.84755 -55.69044 40201 ft 443 kts 211°
2026-05-06 13:09 23.79359 -55.72242 40204 ft 443 kts 211°
2026-05-06 13:09 23.73937 -55.75452 40203 ft 443 kts 211°
2026-05-06 13:10 23.68508 -55.78664 40198 ft 443 kts 211°
2026-05-06 13:10 23.63085 -55.81869 40202 ft 444 kts 211°
2026-05-06 13:11 23.57688 -55.85055 40202 ft 444 kts 211°
2026-05-06 13:11 23.52253 -55.88261 40203 ft 444 kts 211°
2026-05-06 13:12 23.46820 -55.91463 40203 ft 444 kts 211°
2026-05-06 13:12 23.41381 -55.94665 40204 ft 444 kts 211°
2026-05-06 13:13 23.35936 -55.97867 40202 ft 445 kts 211°
2026-05-06 13:13 23.31414 -56.00525 40200 ft 445 kts 211°
2026-05-06 13:14 23.25962 -56.03726 40202 ft 445 kts 211°
2026-05-06 13:14 23.20512 -56.06923 40200 ft 445 kts 211°
2026-05-06 13:15 23.14165 -56.10642 40197 ft 445 kts 211°
2026-05-06 13:15 23.09594 -56.13319 40198 ft 446 kts 211°
2026-05-06 13:16 23.04166 -56.16494 40199 ft 446 kts 211°
2026-05-06 13:16 22.98695 -56.19691 40197 ft 446 kts 211°
2026-05-06 13:17 22.93223 -56.22886 40198 ft 446 kts 211°
2026-05-06 13:17 22.87743 -56.26083 40198 ft 446 kts 211°
2026-05-06 13:18 22.82267 -56.29275 40199 ft 447 kts 211°
2026-05-06 13:18 22.76830 -56.32441 40196 ft 447 kts 211°
2026-05-06 13:19 22.71355 -56.35625 40198 ft 447 kts 211°
2026-05-06 13:19 22.65874 -56.38811 40195 ft 447 kts 211°
2026-05-06 13:20 22.60385 -56.41998 40195 ft 447 kts 211°
2026-05-06 13:20 22.54894 -56.45184 40193 ft 448 kts 211°
2026-05-06 13:21 22.49432 -56.48350 40196 ft 448 kts 211°
2026-05-06 13:21 22.43931 -56.51536 40199 ft 448 kts 210°
2026-05-06 13:22 22.38432 -56.54717 40191 ft 448 kts 210°
2026-05-06 13:22 22.32929 -56.57898 40195 ft 449 kts 210°
2026-05-06 13:23 22.27426 -56.61077 40187 ft 449 kts 210°
2026-05-06 13:23 22.21914 -56.64257 40193 ft 449 kts 210°
2026-05-06 13:24 22.16404 -56.67433 40187 ft 449 kts 210°
2026-05-06 13:24 22.10886 -56.70612 40197 ft 449 kts 210°
2026-05-06 13:25 22.05402 -56.73768 40190 ft 450 kts 210°
2026-05-06 13:25 21.99873 -56.76946 40187 ft 450 kts 210°
2026-05-06 13:26 21.94339 -56.80126 40186 ft 450 kts 210°
2026-05-06 13:26 21.88804 -56.83302 40189 ft 450 kts 210°
2026-05-06 13:27 21.83275 -56.86473 40187 ft 451 kts 210°
2026-05-06 13:27 21.77737 -56.89646 40180 ft 451 kts 210°
2026-05-06 13:28 21.72197 -56.92817 40193 ft 451 kts 210°
2026-05-06 13:28 21.66655 -56.95986 40190 ft 451 kts 210°
2026-05-06 13:29 21.61109 -56.99155 40188 ft 451 kts 210°
2026-05-06 13:29 21.55559 -57.02324 40184 ft 452 kts 210°
2026-05-06 13:30 21.50005 -57.05492 40180 ft 452 kts 210°
2026-05-06 13:30 21.44479 -57.08641 40181 ft 452 kts 210°
2026-05-06 13:31 21.38913 -57.11811 40182 ft 452 kts 210°
2026-05-06 13:31 21.33348 -57.14977 40178 ft 452 kts 210°
2026-05-06 13:32 21.27788 -57.18137 40179 ft 453 kts 210°
2026-05-06 13:32 21.22251 -57.21282 40180 ft 453 kts 210°
2026-05-06 13:33 21.16684 -57.24441 40182 ft 453 kts 210°
2026-05-06 13:33 21.11107 -57.27603 40181 ft 453 kts 210°
2026-05-06 13:34 21.05526 -57.30765 40181 ft 453 kts 210°
2026-05-06 13:34 20.99948 -57.33922 40177 ft 454 kts 210°
2026-05-06 13:35 20.94361 -57.37082 40173 ft 454 kts 210°
2026-05-06 13:35 20.88780 -57.40235 40175 ft 454 kts 210°
2026-05-06 13:36 20.83233 -57.43367 40181 ft 454 kts 210°
2026-05-06 13:36 20.77643 -57.46520 40177 ft 454 kts 210°
2026-05-06 13:37 20.72051 -57.49672 40178 ft 454 kts 210°
2026-05-06 13:37 20.66456 -57.52822 40174 ft 455 kts 210°
2026-05-06 13:38 20.60854 -57.55975 40169 ft 455 kts 210°
2026-05-06 13:38 20.55249 -57.59125 40171 ft 455 kts 210°
2026-05-06 13:39 20.49640 -57.62276 40174 ft 455 kts 210°
2026-05-06 13:39 20.44060 -57.65408 40171 ft 455 kts 210°
2026-05-06 13:40 20.38455 -57.68551 40172 ft 455 kts 210°
2026-05-06 13:40 20.32834 -57.71701 40173 ft 456 kts 210°
2026-05-06 13:41 20.27223 -57.74842 40170 ft 456 kts 210°
2026-05-06 13:41 20.21601 -57.77987 40173 ft 456 kts 210°
2026-05-06 13:42 20.16016 -57.81109 40171 ft 456 kts 210°
2026-05-06 13:42 20.10387 -57.84253 40168 ft 456 kts 210°
2026-05-06 13:43 20.04759 -57.87393 40170 ft 457 kts 210°
2026-05-06 13:43 19.99129 -57.90533 40170 ft 457 kts 210°
2026-05-06 13:44 19.93500 -57.93669 40169 ft 457 kts 210°
2026-05-06 13:44 19.88107 -57.96671 40169 ft 457 kts 210°
2026-05-06 13:45 19.82472 -57.99805 40166 ft 457 kts 210°
2026-05-06 13:45 19.74012 -58.04507 40164 ft 457 kts 210°
2026-05-06 13:46 19.68371 -58.07638 40165 ft 458 kts 210°
2026-05-06 13:46 19.62731 -58.10766 40164 ft 458 kts 210°
2026-05-06 13:47 19.57116 -58.13878 40165 ft 458 kts 210°
2026-05-06 13:47 19.51466 -58.17008 40165 ft 458 kts 210°
2026-05-06 13:48 19.45808 -58.20138 40164 ft 458 kts 210°
2026-05-06 13:48 19.40152 -58.23266 40165 ft 458 kts 210°
2026-05-06 13:49 19.34498 -58.26390 40168 ft 458 kts 210°
2026-05-06 13:49 19.28837 -58.29515 40164 ft 458 kts 210°
2026-05-06 13:50 19.23178 -58.32637 40162 ft 459 kts 210°
2026-05-06 13:50 19.17518 -58.35756 40162 ft 459 kts 210°
2026-05-06 13:51 19.11857 -58.38874 40157 ft 459 kts 210°
2026-05-06 13:51 19.06190 -58.41993 40158 ft 459 kts 210°
2026-05-06 13:52 19.00519 -58.45111 40159 ft 459 kts 210°
2026-05-06 13:52 18.94854 -58.48224 40157 ft 459 kts 210°
2026-05-06 13:53 18.89213 -58.51321 40159 ft 460 kts 210°
2026-05-06 13:53 18.83527 -58.54441 40158 ft 460 kts 210°
2026-05-06 13:54 18.77852 -58.57552 40157 ft 460 kts 210°
2026-05-06 13:54 18.72172 -58.60664 40155 ft 460 kts 210°
2026-05-06 13:55 18.66491 -58.63773 40156 ft 460 kts 210°
2026-05-06 13:55 18.60805 -58.66883 40153 ft 460 kts 210°
2026-05-06 13:56 18.55118 -58.69992 40154 ft 461 kts 210°
2026-05-06 13:56 18.49460 -58.73081 40153 ft 460 kts 210°
2026-05-06 13:57 18.43769 -58.76187 40153 ft 461 kts 210°
2026-05-06 13:57 18.38072 -58.79294 40154 ft 461 kts 210°
2026-05-06 13:58 18.32369 -58.82402 40152 ft 461 kts 210°
2026-05-06 13:58 18.26667 -58.85506 40148 ft 461 kts 210°
2026-05-06 13:59 18.20955 -58.88614 40146 ft 461 kts 210°
2026-05-06 13:59 18.15254 -58.91714 40150 ft 462 kts 210°
2026-05-06 14:00 18.09575 -58.94799 40148 ft 462 kts 210°
2026-05-06 14:00 18.03858 -58.97903 40149 ft 462 kts 210°
2026-05-06 14:01 17.99108 -59.00482 40148 ft 462 kts 210°
2026-05-06 14:01 17.92529 -59.04304 40145 ft 462 kts 211°
2026-05-06 14:02 17.87853 -59.07041 40143 ft 462 kts 211°
2026-05-06 14:02 17.82227 -59.10316 40143 ft 463 kts 211°
2026-05-06 14:03 17.76594 -59.13586 40143 ft 463 kts 211°
2026-05-06 14:03 17.70954 -59.16856 40144 ft 463 kts 211°
2026-05-06 14:04 17.65345 -59.20105 40143 ft 463 kts 211°
2026-05-06 14:04 17.59701 -59.23372 40144 ft 463 kts 211°
2026-05-06 14:05 17.54042 -59.26645 40137 ft 464 kts 211°
2026-05-06 14:05 17.48387 -59.29914 40140 ft 464 kts 211°
2026-05-06 14:06 17.42728 -59.33182 40137 ft 464 kts 211°
2026-05-06 14:06 17.37066 -59.36450 40142 ft 464 kts 211°
2026-05-06 14:07 17.31400 -59.39718 40139 ft 464 kts 211°
2026-05-06 14:07 17.25769 -59.42963 40140 ft 465 kts 211°
2026-05-06 14:08 17.20099 -59.46229 40137 ft 465 kts 211°
2026-05-06 14:08 17.14428 -59.49493 40136 ft 465 kts 211°
2026-05-06 14:09 17.08746 -59.52761 40138 ft 466 kts 211°
2026-05-06 14:09 17.03061 -59.56028 40138 ft 466 kts 211°
2026-05-06 14:10 16.97412 -59.59272 40134 ft 466 kts 211°
2026-05-06 14:10 16.91724 -59.62537 40134 ft 466 kts 211°
2026-05-06 14:11 16.86029 -59.65803 40132 ft 467 kts 211°
2026-05-06 14:11 16.80331 -59.69069 40132 ft 467 kts 211°
2026-05-06 14:12 16.74632 -59.72333 40133 ft 467 kts 211°
2026-05-06 14:12 16.68936 -59.75593 40133 ft 467 kts 211°
2026-05-06 14:13 16.63269 -59.78834 40130 ft 467 kts 211°
2026-05-06 14:13 16.57563 -59.82095 40129 ft 468 kts 211°
2026-05-06 14:14 16.51854 -59.85356 40130 ft 468 kts 211°
2026-05-06 14:14 16.46139 -59.88618 40129 ft 468 kts 211°
2026-05-06 14:15 16.40422 -59.91879 40129 ft 468 kts 211°
2026-05-06 14:15 16.34698 -59.95142 40126 ft 468 kts 211°
2026-05-06 14:16 16.29006 -59.98384 40061 ft 469 kts 211°
2026-05-06 14:16 16.26152 -60.00009 39831 ft 467 kts 211°
2026-05-06 14:16 16.23302 -60.01631 39598 ft 466 kts 211°
2026-05-06 14:17 16.20445 -60.03257 39358 ft 467 kts 210°
2026-05-06 14:17 16.17609 -60.04870 39033 ft 463 kts 210°
2026-05-06 14:17 16.14781 -60.06478 38424 ft 463 kts 210°
2026-05-06 14:17 16.11993 -60.08063 37801 ft 462 kts 210°
2026-05-06 14:18 16.09176 -60.09664 37194 ft 462 kts 210°
2026-05-06 14:18 16.06352 -60.11267 36561 ft 462 kts 210°
2026-05-06 14:18 16.03528 -60.12871 35941 ft 463 kts 210°
2026-05-06 14:18 16.00699 -60.14477 35292 ft 464 kts 210°
2026-05-06 14:19 15.97848 -60.16096 34564 ft 468 kts 210°
2026-05-06 14:19 15.94976 -60.17725 33791 ft 472 kts 210°
2026-05-06 14:19 15.92101 -60.19403 33041 ft 474 kts 213°
2026-05-06 14:19 15.89515 -60.21495 32432 ft 471 kts 224°
2026-05-06 14:20 15.87176 -60.23869 31863 ft 469 kts 226°
2026-05-06 14:20 15.84869 -60.26271 31329 ft 467 kts 226°
2026-05-06 14:20 15.82577 -60.28655 30781 ft 466 kts 226°
2026-05-06 14:20 15.80284 -60.31034 30228 ft 465 kts 226°
2026-05-06 14:21 15.77999 -60.33400 29638 ft 463 kts 226°
2026-05-06 14:21 15.75724 -60.35752 29090 ft 460 kts 226°
2026-05-06 14:21 15.73494 -60.38057 28572 ft 456 kts 226°
2026-05-06 14:21 15.71251 -60.40373 28036 ft 453 kts 226°
2026-05-06 14:22 15.69019 -60.42678 27522 ft 450 kts 226°
2026-05-06 14:22 15.66805 -60.44961 27002 ft 447 kts 226°
2026-05-06 14:22 15.64602 -60.47234 26495 ft 445 kts 226°
2026-05-06 14:22 15.62415 -60.49490 25972 ft 442 kts 226°
2026-05-06 14:23 15.60237 -60.51736 25461 ft 440 kts 226°
2026-05-06 14:23 15.58072 -60.53967 24945 ft 438 kts 226°
2026-05-06 14:23 15.55914 -60.56190 24421 ft 436 kts 225°
2026-05-06 14:23 15.53790 -60.58378 23909 ft 434 kts 225°
2026-05-06 14:24 15.51647 -60.60583 23337 ft 433 kts 225°
2026-05-06 14:24 15.49514 -60.62776 22788 ft 430 kts 226°
2026-05-06 14:24 15.47399 -60.64951 22269 ft 426 kts 226°
2026-05-06 14:24 15.45300 -60.67109 21744 ft 423 kts 226°
2026-05-06 14:25 15.43215 -60.69251 21225 ft 421 kts 226°
2026-05-06 14:25 15.41136 -60.71389 20706 ft 419 kts 226°
2026-05-06 14:25 15.39075 -60.73509 20184 ft 417 kts 226°
2026-05-06 14:25 15.37014 -60.75626 19650 ft 415 kts 226°
2026-05-06 14:26 15.34992 -60.77703 19150 ft 414 kts 226°
2026-05-06 14:26 15.32948 -60.79800 18640 ft 413 kts 226°
2026-05-06 14:26 15.30910 -60.81891 18248 ft 411 kts 226°
2026-05-06 14:26 15.28879 -60.83977 18120 ft 411 kts 226°
2026-05-06 14:27 15.26848 -60.86060 18114 ft 411 kts 226°
2026-05-06 14:27 15.24814 -60.88147 18114 ft 411 kts 226°
2026-05-06 14:27 15.22781 -60.90231 18114 ft 411 kts 226°
2026-05-06 14:27 15.20756 -60.92306 17760 ft 407 kts 226°
2026-05-06 14:28 15.18731 -60.94382 16915 ft 413 kts 226°
2026-05-06 14:28 15.16678 -60.96487 16202 ft 416 kts 226°
2026-05-06 14:28 15.14622 -60.98592 15582 ft 415 kts 225°
2026-05-06 14:28 15.12576 -61.00686 14974 ft 413 kts 225°
2026-05-06 14:29 15.10533 -61.02776 14392 ft 412 kts 225°
2026-05-06 14:29 15.08540 -61.04815 13724 ft 401 kts 225°
2026-05-06 14:29 15.06577 -61.06824 12464 ft 394 kts 225°
2026-05-06 14:29 15.04636 -61.08812 11227 ft 390 kts 224°
2026-05-06 14:30 15.02760 -61.10732 10801 ft 364 kts 224°
2026-05-06 14:30 15.01041 -61.12489 10661 ft 332 kts 224°
2026-05-06 14:30 14.99461 -61.14104 10537 ft 311 kts 223°
2026-05-06 14:30 14.97941 -61.15657 10415 ft 304 kts 223°
2026-05-06 14:31 14.96461 -61.17168 10238 ft 295 kts 223°
2026-05-06 14:31 14.95012 -61.18645 9975 ft 292 kts 223°
2026-05-06 14:31 14.93540 -61.20145 9637 ft 300 kts 223°
2026-05-06 14:31 14.92051 -61.21664 9292 ft 299 kts 223°
2026-05-06 14:32 14.90575 -61.23169 8947 ft 297 kts 223°
2026-05-06 14:32 14.89105 -61.24670 8527 ft 297 kts 223°
2026-05-06 14:32 14.87631 -61.26173 8158 ft 295 kts 223°
2026-05-06 14:32 14.86176 -61.27658 7825 ft 292 kts 222°
2026-05-06 14:33 14.84663 -61.28982 7483 ft 287 kts 209°
2026-05-06 14:33 14.82817 -61.29644 7152 ft 279 kts 182°
2026-05-06 14:33 14.80919 -61.29428 6843 ft 274 kts 162°
2026-05-06 14:33 14.79114 -61.28825 6538 ft 273 kts 159°
2026-05-06 14:34 14.77326 -61.28179 6230 ft 272 kts 159°
2026-05-06 14:34 14.75546 -61.27543 5923 ft 270 kts 159°
2026-05-06 14:34 14.73765 -61.26916 5629 ft 269 kts 159°
2026-05-06 14:34 14.71995 -61.26297 5333 ft 267 kts 159°
2026-05-06 14:35 14.70241 -61.25685 5039 ft 266 kts 159°
2026-05-06 14:35 14.68481 -61.25072 4746 ft 267 kts 158°
2026-05-06 14:35 14.66727 -61.24462 4455 ft 265 kts 159°
2026-05-06 14:35 14.64984 -61.23858 4150 ft 264 kts 158°
2026-05-06 14:36 14.63243 -61.23256 3854 ft 264 kts 158°
2026-05-06 14:36 14.61504 -61.22652 3561 ft 263 kts 158°
2026-05-06 14:36 14.59787 -61.22057 3418 ft 254 kts 158°
2026-05-06 14:36 14.58147 -61.21485 3304 ft 243 kts 158°
2026-05-06 14:37 14.56769 -61.20620 3180 ft 225 kts 127°
2026-05-06 14:37 14.56190 -61.19236 3104 ft 207 kts 99°
2026-05-06 14:37 14.56104 -61.17801 3008 ft 194 kts 82°
2026-05-06 14:37 14.56369 -61.16470 2843 ft 186 kts 77°
2026-05-06 14:38 14.56593 -61.15161 2590 ft 184 kts 82°
2026-05-06 14:38 14.56798 -61.13863 2320 ft 182 kts 81°
2026-05-06 14:38 14.57021 -61.12569 2085 ft 182 kts 81°
2026-05-06 14:38 14.57231 -61.11317 1835 ft 172 kts 79°
2026-05-06 14:39 14.57432 -61.10156 1623 ft 156 kts 81°
2026-05-06 14:39 14.57607 -61.09106 1415 ft 142 kts 80°
2026-05-06 14:39 14.57771 -61.08148 1236 ft 131 kts 81°
2026-05-06 14:39 14.57926 -61.07238 1071 ft 130 kts 81°
2026-05-06 14:40 14.58081 -61.06309 905 ft 131 kts 78°
2026-05-06 14:40 14.58235 -61.05391 746 ft 130 kts 79°
2026-05-06 14:40 14.58401 -61.04475 585 ft 129 kts 79°
2026-05-06 14:40 14.58564 -61.03559 384 ft 129 kts 80°
2026-05-06 14:41 14.58714 -61.02635 249 ft 133 kts 80°
2026-05-06 14:41 14.58872 -61.01698 42 ft 131 kts 80°
2026-05-06 14:41 14.59016 -61.00840 28 ft 105 kts 80°
2026-05-06 14:41 14.59122 -61.00229 22 ft 68 kts 80°
2026-05-06 14:42 14.59183 -60.99877 26 ft 38 kts 80°
2026-05-06 14:42 14.59209 -60.99711 27 ft 11 kts 81°
2026-05-06 14:42 14.59251 -60.99664 28 ft 9 kts 17°
2026-05-06 14:42 14.59317 -60.99670 27 ft 11 kts 354°
2026-05-06 14:43 14.59392 -60.99695 26 ft 12 kts 313°
2026-05-06 14:43 14.59396 -60.99781 30 ft 13 kts 260°
2026-05-06 14:43 14.59377 -60.99888 30 ft 17 kts 261°
2026-05-06 14:43 14.59361 -61.00005 26 ft 15 kts 271°
2026-05-06 14:44 14.59385 -61.00109 28 ft 13 kts 292°
2026-05-06 14:44 14.59426 -61.00183 26 ft 10 kts 306°
2026-05-06 14:44 14.59457 -61.00209 28 ft 5 kts 349°
2026-05-06 14:45 14.59509 -61.00164 24 ft 1 kts 47°
2026-05-06 14:45 14.59513 -61.00160 25 ft 0 kts 47°